Time,TemperatureF,DewpointF,PressureIn,WindDirection,WindDirectionDegrees,WindSpeedMPH,WindSpeedGustMPH,Humidity,HourlyPrecipIn,Conditions,Clouds,dailyrainin,SoftwareType,DateUTC
2013-06-03 00:00:00,69.8,63.7,29.74,SSW,203,1.8,3.6,81,0.00,,,0.00,WUHU216HW,2013-06-03 04:00:00,
2013-06-03 00:01:00,69.8,63.7,29.74,SSW,203,1.8,3.6,81,0.00,,,0.00,WUHU216HW,2013-06-03 04:01:00,
2013-06-03 00:02:00,69.8,63.7,29.74,SSW,203,1.8,2.7,81,0.00,,,0.00,WUHU216HW,2013-06-03 04:02:00,
2013-06-03 00:03:00,69.8,64.1,29.74,South,180,1.6,2.7,82,0.00,,,0.00,WUHU216HW,2013-06-03 04:03:00,
2013-06-03 00:06:00,69.7,63.9,29.73,South,180,1.8,2.7,82,0.00,,,0.00,WUHU216HW,2013-06-03 04:06:00,
2013-06-03 00:07:00,69.7,63.9,29.74,SSW,203,2.5,2.7,82,0.00,,,0.00,WUHU216HW,2013-06-03 04:07:00,
2013-06-03 00:08:00,69.7,63.9,29.73,South,180,1.8,2.5,82,0.00,,,0.00,WUHU216HW,2013-06-03 04:08:00,
2013-06-03 00:09:00,69.5,63.7,29.74,SSW,203,1.6,2.5,82,0.00,,,0.00,WUHU216HW,2013-06-03 04:09:00,
2013-06-03 00:12:00,69.5,63.7,29.74,SSW,203,2.0,2.5,82,0.00,,,0.00,WUHU216HW,2013-06-03 04:12:00,
2013-06-03 00:14:00,69.5,64.1,29.74,SW,225,1.1,2.5,83,0.00,,,0.00,WUHU216HW,2013-06-03 04:14:00,
2013-06-03 00:15:00,69.5,64.1,29.74,SSW,203,1.8,2.5,83,0.00,,,0.00,WUHU216HW,2013-06-03 04:15:00,
2013-06-03 00:17:00,69.3,63.9,29.74,SSW,203,1.6,2.0,83,0.00,,,0.00,WUHU216HW,2013-06-03 04:17:00,
2013-06-03 00:19:00,69.3,63.9,29.74,South,180,2.2,2.2,83,0.00,,,0.00,WUHU216HW,2013-06-03 04:19:00,
2013-06-03 00:20:00,69.3,63.9,29.74,South,180,2.2,2.2,83,0.00,,,0.00,WUHU216HW,2013-06-03 04:20:00,
2013-06-03 00:23:00,69.1,63.7,29.74,SSW,203,1.3,2.2,83,0.00,,,0.00,WUHU216HW,2013-06-03 04:23:00,
2013-06-03 00:25:00,69.1,63.7,29.73,SSW,203,1.6,2.2,83,0.00,,,0.00,WUHU216HW,2013-06-03 04:25:00,
2013-06-03 00:26:00,69.1,64.1,29.73,SSE,158,1.3,2.2,84,0.00,,,0.00,WUHU216HW,2013-06-03 04:26:00,
2013-06-03 00:28:00,69.1,64.1,29.73,South,180,0.9,2.2,84,0.00,,,0.00,WUHU216HW,2013-06-03 04:28:00,
2013-06-03 00:31:00,68.9,63.9,29.73,South,180,1.1,2.2,84,0.00,,,0.00,WUHU216HW,2013-06-03 04:31:00,
2013-06-03 00:34:00,68.9,63.9,29.74,South,180,0.7,2.2,84,0.00,,,0.00,WUHU216HW,2013-06-03 04:34:00,
2013-06-03 00:36:00,68.9,63.9,29.74,SSW,203,2.5,2.5,84,0.00,,,0.00,WUHU216HW,2013-06-03 04:36:00,
2013-06-03 00:37:00,68.9,63.9,29.74,SSW,203,2.5,2.5,84,0.00,,,0.00,WUHU216HW,2013-06-03 04:37:00,
2013-06-03 00:39:00,68.9,63.9,29.74,WSW,248,2.9,3.1,84,0.00,,,0.00,WUHU216HW,2013-06-03 04:39:00,
2013-06-03 00:41:00,68.9,63.5,29.74,West,270,2.5,3.1,83,0.00,,,0.00,WUHU216HW,2013-06-03 04:41:00,
2013-06-03 00:42:00,68.9,63.5,29.74,WSW,248,1.8,3.1,83,0.00,,,0.00,WUHU216HW,2013-06-03 04:42:00,
2013-06-03 00:43:00,68.9,63.5,29.74,SW,225,2.9,3.1,83,0.00,,,0.00,WUHU216HW,2013-06-03 04:43:00,
2013-06-03 00:47:00,69.1,63.7,29.74,West,270,2.2,2.9,83,0.00,,,0.00,WUHU216HW,2013-06-03 04:47:00,
2013-06-03 00:48:00,69.1,63.7,29.74,West,270,1.1,2.9,83,0.00,,,0.00,WUHU216HW,2013-06-03 04:48:00,
2013-06-03 00:50:00,69.1,63.7,29.74,WNW,293,1.3,2.9,83,0.00,,,0.00,WUHU216HW,2013-06-03 04:50:00,
2013-06-03 00:53:00,69.1,63.7,29.74,WSW,248,1.3,2.9,83,0.00,,,0.00,WUHU216HW,2013-06-03 04:53:00,
2013-06-03 00:54:00,69.1,63.4,29.74,NW,315,0.2,2.2,82,0.00,,,0.00,WUHU216HW,2013-06-03 04:54:00,
2013-06-03 00:55:00,69.1,63.4,29.73,NW,315,0.7,2.2,82,0.00,,,0.00,WUHU216HW,2013-06-03 04:55:00,
2013-06-03 00:58:00,69.1,63.4,29.74,NW,315,0.0,1.3,82,0.00,,,0.00,WUHU216HW,2013-06-03 04:58:00,
2013-06-03 01:00:00,69.1,63.4,29.74,NW,315,0.0,1.3,82,0.00,,,0.00,WUHU216HW,2013-06-03 05:00:00,
2013-06-03 01:01:00,68.9,63.2,29.74,NW,315,0.0,1.3,82,0.00,,,0.00,WUHU216HW,2013-06-03 05:01:00,
2013-06-03 01:04:00,68.9,63.5,29.74,NW,315,0.0,0.7,83,0.00,,,0.00,WUHU216HW,2013-06-03 05:04:00,
2013-06-03 01:05:00,68.9,63.5,29.73,NW,315,0.0,0.4,83,0.00,,,0.00,WUHU216HW,2013-06-03 05:05:00,
2013-06-03 01:07:00,68.8,63.4,29.73,NW,315,0.0,0.4,83,0.00,,,0.00,WUHU216HW,2013-06-03 05:07:00,
2013-06-03 01:08:00,68.8,63.4,29.73,NW,315,0.0,0.0,83,0.00,,,0.00,WUHU216HW,2013-06-03 05:08:00,
2013-06-03 01:09:00,68.9,63.5,29.74,NW,315,0.0,0.0,83,0.00,,,0.00,WUHU216HW,2013-06-03 05:09:00,
2013-06-03 01:10:00,68.9,63.5,29.74,NW,315,0.0,0.0,83,0.00,,,0.00,WUHU216HW,2013-06-03 05:10:00,
2013-06-03 01:12:00,68.9,63.5,29.74,NW,315,0.0,0.0,83,0.00,,,0.00,WUHU216HW,2013-06-03 05:12:00,
2013-06-03 01:13:00,68.9,63.5,29.74,NW,315,0.0,0.0,83,0.00,,,0.00,WUHU216HW,2013-06-03 05:13:00,
2013-06-03 01:15:00,68.9,63.5,29.73,NW,315,0.0,0.0,83,0.00,,,0.00,WUHU216HW,2013-06-03 05:15:00,
2013-06-03 01:18:00,68.9,63.2,29.74,NW,315,0.0,0.0,82,0.00,,,0.00,WUHU216HW,2013-06-03 05:18:00,
2013-06-03 01:21:00,68.9,63.2,29.74,NW,315,0.0,0.0,82,0.00,,,0.00,WUHU216HW,2013-06-03 05:21:00,
2013-06-03 01:22:00,69.1,63.4,29.74,NW,315,0.0,0.0,82,0.00,,,0.00,WUHU216HW,2013-06-03 05:22:00,
2013-06-03 01:23:00,69.1,63.4,29.74,NW,315,0.0,0.0,82,0.00,,,0.00,WUHU216HW,2013-06-03 05:23:00,
2013-06-03 01:24:00,69.1,63.4,29.74,NW,315,0.0,0.0,82,0.00,,,0.00,WUHU216HW,2013-06-03 05:24:00,
2013-06-03 01:26:00,69.1,63.4,29.74,NW,315,0.0,0.0,82,0.00,,,0.00,WUHU216HW,2013-06-03 05:26:00,
2013-06-03 01:28:00,69.1,63.4,29.74,NW,315,0.4,0.4,82,0.00,,,0.00,WUHU216HW,2013-06-03 05:28:00,
2013-06-03 01:29:00,69.1,63.4,29.74,WNW,293,1.1,1.1,82,0.00,,,0.00,WUHU216HW,2013-06-03 05:29:00,
2013-06-03 01:30:00,69.1,63.4,29.74,WNW,293,0.0,1.1,82,0.00,,,0.00,WUHU216HW,2013-06-03 05:30:00,
2013-06-03 01:31:00,69.1,63.4,29.74,WNW,293,0.0,1.1,82,0.00,,,0.00,WUHU216HW,2013-06-03 05:31:00,
2013-06-03 01:34:00,69.1,63.4,29.74,WNW,293,0.0,1.1,82,0.00,,,0.00,WUHU216HW,2013-06-03 05:34:00,
2013-06-03 01:35:00,69.1,63.4,29.74,WNW,293,0.0,1.1,82,0.00,,,0.00,WUHU216HW,2013-06-03 05:35:00,
2013-06-03 01:36:00,69.1,63.4,29.74,WNW,293,0.0,1.1,82,0.00,,,0.00,WUHU216HW,2013-06-03 05:36:00,
2013-06-03 01:38:00,69.1,63.4,29.74,WNW,293,0.0,1.1,82,0.00,,,0.00,WUHU216HW,2013-06-03 05:38:00,
2013-06-03 01:40:00,69.1,63.1,29.74,NW,315,0.4,0.7,81,0.00,,,0.00,WUHU216HW,2013-06-03 05:40:00,
2013-06-03 01:41:00,69.1,63.1,29.74,NW,315,0.4,0.7,81,0.00,,,0.00,WUHU216HW,2013-06-03 05:41:00,
2013-06-03 01:43:00,69.1,63.4,29.74,NW,315,0.4,0.7,82,0.00,,,0.00,WUHU216HW,2013-06-03 05:43:00,
2013-06-03 01:46:00,69.1,63.4,29.73,NW,315,0.0,0.7,82,0.00,,,0.00,WUHU216HW,2013-06-03 05:46:00,
2013-06-03 01:47:00,69.1,63.4,29.73,NW,315,0.0,0.7,82,0.00,,,0.00,WUHU216HW,2013-06-03 05:47:00,
2013-06-03 01:48:00,69.1,63.4,29.74,NW,315,0.0,0.7,82,0.00,,,0.00,WUHU216HW,2013-06-03 05:48:00,
2013-06-03 01:52:00,69.1,63.4,29.73,NW,315,0.4,0.4,82,0.00,,,0.00,WUHU216HW,2013-06-03 05:52:00,
2013-06-03 01:53:00,69.1,63.4,29.73,NW,315,0.4,0.4,82,0.00,,,0.00,WUHU216HW,2013-06-03 05:53:00,
2013-06-03 01:54:00,69.1,63.4,29.73,WSW,248,1.8,1.8,82,0.00,,,0.00,WUHU216HW,2013-06-03 05:54:00,
2013-06-03 01:57:00,69.1,63.4,29.74,West,270,1.6,1.8,82,0.00,,,0.00,WUHU216HW,2013-06-03 05:57:00,
2013-06-03 01:59:00,69.1,63.4,29.73,West,270,0.4,1.8,82,0.00,,,0.00,WUHU216HW,2013-06-03 05:59:00,
2013-06-03 02:00:00,68.9,63.2,29.73,West,270,0.2,1.8,82,0.00,,,0.00,WUHU216HW,2013-06-03 06:00:00,
2013-06-03 02:02:00,68.9,63.2,29.73,West,270,0.0,1.8,82,0.00,,,0.00,WUHU216HW,2013-06-03 06:02:00,
2013-06-03 02:04:00,68.9,63.2,29.73,SSE,158,0.4,1.6,82,0.00,,,0.00,WUHU216HW,2013-06-03 06:04:00,
2013-06-03 02:05:00,68.9,63.5,29.73,SSE,158,0.4,1.6,83,0.00,,,0.00,WUHU216HW,2013-06-03 06:05:00,
2013-06-03 02:07:00,68.8,63.1,29.73,SW,225,1.1,1.1,82,0.00,,,0.00,WUHU216HW,2013-06-03 06:07:00,
2013-06-03 02:08:00,68.8,63.1,29.73,WSW,248,0.7,1.1,82,0.00,,,0.00,WUHU216HW,2013-06-03 06:08:00,
2013-06-03 02:10:00,68.8,63.1,29.73,West,270,1.1,1.3,82,0.00,,,0.00,WUHU216HW,2013-06-03 06:10:00,
2013-06-03 02:13:00,68.8,63.4,29.73,West,270,1.6,1.6,83,0.00,,,0.00,WUHU216HW,2013-06-03 06:13:00,
2013-06-03 02:14:00,68.8,63.4,29.73,West,270,1.6,1.6,83,0.00,,,0.00,WUHU216HW,2013-06-03 06:14:00,
2013-06-03 02:15:00,68.8,63.1,29.73,WSW,248,1.8,1.8,82,0.00,,,0.00,WUHU216HW,2013-06-03 06:15:00,
2013-06-03 02:16:00,68.8,63.1,29.73,WSW,248,1.8,1.8,82,0.00,,,0.00,WUHU216HW,2013-06-03 06:16:00,
2013-06-03 02:19:00,68.8,63.4,29.72,NW,315,0.4,1.8,83,0.00,,,0.00,WUHU216HW,2013-06-03 06:19:00,
2013-06-03 02:20:00,68.8,63.4,29.73,NW,315,0.4,1.8,83,0.00,,,0.00,WUHU216HW,2013-06-03 06:20:00,
2013-06-03 02:21:00,68.8,63.4,29.73,NW,315,0.4,1.8,83,0.00,,,0.00,WUHU216HW,2013-06-03 06:21:00,
2013-06-03 02:22:00,68.8,63.1,29.72,NW,315,0.0,1.8,82,0.00,,,0.00,WUHU216HW,2013-06-03 06:22:00,
2013-06-03 02:24:00,68.8,63.1,29.72,NW,315,0.4,1.8,82,0.00,,,0.00,WUHU216HW,2013-06-03 06:24:00,
2013-06-03 02:25:00,68.8,63.1,29.72,NW,315,0.4,0.9,82,0.00,,,0.00,WUHU216HW,2013-06-03 06:25:00,
2013-06-03 02:26:00,68.8,63.1,29.72,NW,315,0.0,0.9,82,0.00,,,0.00,WUHU216HW,2013-06-03 06:26:00,
2013-06-03 02:27:00,68.8,63.4,29.72,NW,315,0.0,0.9,83,0.00,,,0.00,WUHU216HW,2013-06-03 06:27:00,
2013-06-03 02:29:00,68.8,63.4,29.72,NW,315,0.0,0.4,83,0.00,,,0.00,WUHU216HW,2013-06-03 06:29:00,
2013-06-03 02:30:00,68.8,63.4,29.72,NW,315,0.0,0.4,83,0.00,,,0.00,WUHU216HW,2013-06-03 06:30:00,
2013-06-03 02:32:00,68.8,63.4,29.72,NW,315,0.0,0.4,83,0.00,,,0.00,WUHU216HW,2013-06-03 06:32:00,
2013-06-03 02:33:00,68.8,63.4,29.72,NW,315,0.0,0.4,83,0.00,,,0.00,WUHU216HW,2013-06-03 06:33:00,
2013-06-03 02:34:00,68.8,63.4,29.72,NW,315,0.0,0.0,83,0.00,,,0.00,WUHU216HW,2013-06-03 06:34:00,
2013-06-03 02:36:00,68.8,63.1,29.72,NW,315,0.7,0.7,82,0.00,,,0.00,WUHU216HW,2013-06-03 06:36:00,
2013-06-03 02:37:00,68.6,62.9,29.72,NW,315,0.9,0.9,82,0.00,,,0.00,WUHU216HW,2013-06-03 06:37:00,
2013-06-03 02:38:00,68.6,62.9,29.72,NW,315,0.7,0.9,82,0.00,,,0.00,WUHU216HW,2013-06-03 06:38:00,
2013-06-03 02:40:00,68.6,62.9,29.72,WNW,293,1.1,1.6,82,0.00,,,0.00,WUHU216HW,2013-06-03 06:40:00,
2013-06-03 02:42:00,68.6,63.2,29.72,WSW,248,1.1,1.6,83,0.00,,,0.00,WUHU216HW,2013-06-03 06:42:00,
2013-06-03 02:45:00,68.6,63.2,29.72,West,270,2.0,2.0,83,0.00,,,0.00,WUHU216HW,2013-06-03 06:45:00,
2013-06-03 02:47:00,68.6,63.2,29.72,WSW,248,1.1,2.5,83,0.00,,,0.00,WUHU216HW,2013-06-03 06:47:00,
2013-06-03 02:48:00,68.6,63.2,29.72,WSW,248,1.1,2.5,83,0.00,,,0.00,WUHU216HW,2013-06-03 06:48:00,
2013-06-03 02:50:00,68.6,63.2,29.72,WSW,248,1.3,2.5,83,0.00,,,0.00,WUHU216HW,2013-06-03 06:50:00,
2013-06-03 02:53:00,68.4,63.4,29.72,WSW,248,0.9,2.5,84,0.00,,,0.00,WUHU216HW,2013-06-03 06:53:00,
2013-06-03 02:54:00,68.4,63.1,29.72,WSW,248,0.0,2.5,83,0.00,,,0.00,WUHU216HW,2013-06-03 06:54:00,
2013-06-03 02:56:00,68.4,63.1,29.72,SW,225,0.0,2.2,83,0.00,,,0.00,WUHU216HW,2013-06-03 06:56:00,
2013-06-03 02:58:00,68.2,62.9,29.72,SSE,158,0.0,1.8,83,0.00,,,0.00,WUHU216HW,2013-06-03 06:58:00,
2013-06-03 02:59:00,68.2,62.9,29.72,SSE,158,0.0,1.3,83,0.00,,,0.00,WUHU216HW,2013-06-03 06:59:00,
2013-06-03 03:01:00,68.2,62.9,29.72,SSW,203,0.0,0.9,83,0.00,,,0.00,WUHU216HW,2013-06-03 07:01:00,
2013-06-03 03:02:00,68.2,62.9,29.72,SW,225,0.0,0.9,83,0.00,,,0.00,WUHU216HW,2013-06-03 07:02:00,
2013-06-03 03:03:00,68.0,62.7,29.72,SW,225,0.0,0.7,83,0.00,,,0.00,WUHU216HW,2013-06-03 07:03:00,
2013-06-03 03:05:00,68.0,62.7,29.72,WSW,248,1.1,1.1,83,0.00,,,0.00,WUHU216HW,2013-06-03 07:05:00,
2013-06-03 03:06:00,68.0,63.0,29.72,WSW,248,1.1,1.1,84,0.00,,,0.00,WUHU216HW,2013-06-03 07:06:00,
2013-06-03 03:08:00,68.0,63.0,29.72,WSW,248,1.3,1.3,84,0.00,,,0.00,WUHU216HW,2013-06-03 07:08:00,
2013-06-03 03:09:00,68.2,63.2,29.72,WSW,248,1.1,1.3,84,0.00,,,0.00,WUHU216HW,2013-06-03 07:09:00,
2013-06-03 03:10:00,68.0,63.0,29.72,WSW,248,1.1,1.3,84,0.00,,,0.00,WUHU216HW,2013-06-03 07:10:00,
2013-06-03 03:13:00,68.0,63.0,29.72,WSW,248,0.0,1.3,84,0.00,,,0.00,WUHU216HW,2013-06-03 07:13:00,
2013-06-03 03:14:00,68.0,63.0,29.72,WSW,248,0.0,1.3,84,0.00,,,0.00,WUHU216HW,2013-06-03 07:14:00,
2013-06-03 03:15:00,68.0,63.0,29.72,WSW,248,0.9,1.3,84,0.00,,,0.00,WUHU216HW,2013-06-03 07:15:00,
2013-06-03 03:16:00,68.0,63.0,29.72,WSW,248,1.1,1.3,84,0.00,,,0.00,WUHU216HW,2013-06-03 07:16:00,
2013-06-03 03:18:00,68.0,63.0,29.72,WSW,248,0.7,1.1,84,0.00,,,0.00,WUHU216HW,2013-06-03 07:18:00,
2013-06-03 03:19:00,68.0,63.0,29.72,WSW,248,0.7,1.1,84,0.00,,,0.00,WUHU216HW,2013-06-03 07:19:00,
2013-06-03 03:21:00,68.0,63.0,29.72,WSW,248,0.0,1.1,84,0.00,,,0.00,WUHU216HW,2013-06-03 07:21:00,
2013-06-03 03:24:00,67.9,62.8,29.71,SSE,158,0.0,1.1,84,0.00,,,0.00,WUHU216HW,2013-06-03 07:24:00,
2013-06-03 03:25:00,67.9,62.8,29.71,SSE,158,0.0,1.1,84,0.00,,,0.00,WUHU216HW,2013-06-03 07:25:00,
2013-06-03 03:26:00,67.9,62.8,29.71,SSE,158,0.0,1.1,84,0.00,,,0.00,WUHU216HW,2013-06-03 07:26:00,
2013-06-03 03:27:00,67.7,62.6,29.71,SSW,203,0.0,0.7,84,0.00,,,0.00,WUHU216HW,2013-06-03 07:27:00,
2013-06-03 03:30:00,67.7,62.6,29.71,NW,315,0.9,1.1,84,0.00,,,0.00,WUHU216HW,2013-06-03 07:30:00,
2013-06-03 03:32:00,67.7,62.6,29.71,NNW,338,0.4,1.1,84,0.00,,,0.00,WUHU216HW,2013-06-03 07:32:00,
2013-06-03 03:33:00,67.7,62.6,29.71,NNW,338,0.4,1.1,84,0.00,,,0.00,WUHU216HW,2013-06-03 07:33:00,
2013-06-03 03:35:00,67.5,62.5,29.71,NNW,338,0.7,1.1,84,0.00,,,0.00,WUHU216HW,2013-06-03 07:35:00,
2013-06-03 03:37:00,67.5,62.5,29.71,NNW,338,0.9,1.1,84,0.00,,,0.00,WUHU216HW,2013-06-03 07:37:00,
2013-06-03 03:38:00,67.5,62.5,29.71,NNW,338,0.2,1.1,84,0.00,,,0.00,WUHU216HW,2013-06-03 07:38:00,
2013-06-03 03:39:00,67.5,62.5,29.71,NNW,338,0.0,0.9,84,0.00,,,0.00,WUHU216HW,2013-06-03 07:39:00,
2013-06-03 03:42:00,67.5,62.5,29.71,NNW,338,0.0,0.9,84,0.00,,,0.00,WUHU216HW,2013-06-03 07:42:00,
2013-06-03 03:43:00,67.3,62.3,29.71,NNW,338,0.0,0.9,84,0.00,,,0.00,WUHU216HW,2013-06-03 07:43:00,
2013-06-03 03:44:00,67.3,62.3,29.71,NNW,338,0.2,0.9,84,0.00,,,0.00,WUHU216HW,2013-06-03 07:44:00,
2013-06-03 03:45:00,67.3,62.3,29.71,NNW,338,0.7,0.9,84,0.00,,,0.00,WUHU216HW,2013-06-03 07:45:00,
2013-06-03 03:47:00,67.3,62.6,29.71,NNW,338,0.4,0.7,85,0.00,,,0.00,WUHU216HW,2013-06-03 07:47:00,
2013-06-03 03:48:00,67.3,62.6,29.71,NNW,338,0.7,0.7,85,0.00,,,0.00,WUHU216HW,2013-06-03 07:48:00,
2013-06-03 03:49:00,67.3,62.6,29.71,NNW,338,0.4,0.7,85,0.00,,,0.00,WUHU216HW,2013-06-03 07:49:00,
2013-06-03 03:50:00,67.3,62.6,29.71,NNW,338,0.0,0.7,85,0.00,,,0.00,WUHU216HW,2013-06-03 07:50:00,
2013-06-03 03:53:00,67.1,62.5,29.71,SE,135,2.0,2.0,85,0.00,,,0.00,WUHU216HW,2013-06-03 07:53:00,
2013-06-03 03:54:00,67.0,62.3,29.70,SE,135,1.8,2.0,85,0.00,,,0.00,WUHU216HW,2013-06-03 07:54:00,
2013-06-03 03:55:00,67.0,62.3,29.70,SE,135,2.5,2.5,85,0.00,,,0.00,WUHU216HW,2013-06-03 07:55:00,
2013-06-03 03:56:00,67.0,62.7,29.70,ESE,113,2.5,2.5,86,0.00,,,0.00,WUHU216HW,2013-06-03 07:56:00,
2013-06-03 03:58:00,67.0,62.7,29.70,SE,135,2.2,2.5,86,0.00,,,0.00,WUHU216HW,2013-06-03 07:58:00,
2013-06-03 03:59:00,66.8,62.7,29.71,SE,135,2.7,2.7,87,0.00,,,0.00,WUHU216HW,2013-06-03 07:59:00,
2013-06-03 04:01:00,66.8,62.7,29.70,SSE,158,1.8,2.7,87,0.00,,,0.00,WUHU216HW,2013-06-03 08:01:00,
2013-06-03 04:04:00,66.4,62.7,29.70,SSE,158,1.6,2.7,88,0.00,,,0.00,WUHU216HW,2013-06-03 08:04:00,
2013-06-03 04:05:00,66.2,62.6,29.70,SSE,158,0.9,2.7,88,0.00,,,0.00,WUHU216HW,2013-06-03 08:05:00,
2013-06-03 04:06:00,66.2,62.6,29.70,SSE,158,1.3,2.7,88,0.00,,,0.00,WUHU216HW,2013-06-03 08:06:00,
2013-06-03 04:09:00,66.1,62.4,29.71,ESE,113,1.1,2.7,88,0.00,,,0.00,WUHU216HW,2013-06-03 08:09:00,
2013-06-03 04:10:00,65.9,62.2,29.70,ESE,113,1.3,2.0,88,0.00,,,0.00,WUHU216HW,2013-06-03 08:10:00,
2013-06-03 04:11:00,66.1,62.4,29.71,East,90,0.7,1.6,88,0.00,,,0.00,WUHU216HW,2013-06-03 08:11:00,
2013-06-03 04:13:00,65.9,62.2,29.71,NE,45,0.7,1.3,88,0.00,,,0.00,WUHU216HW,2013-06-03 08:13:00,
2013-06-03 04:15:00,66.1,62.4,29.71,NE,45,0.2,1.3,88,0.00,,,0.00,WUHU216HW,2013-06-03 08:15:00,
2013-06-03 04:16:00,65.9,62.2,29.71,North,0,0.9,1.3,88,0.00,,,0.00,WUHU216HW,2013-06-03 08:16:00,
2013-06-03 04:17:00,65.9,62.2,29.71,North,0,0.9,1.3,88,0.00,,,0.00,WUHU216HW,2013-06-03 08:17:00,
2013-06-03 04:18:00,66.1,62.4,29.70,North,0,0.4,1.3,88,0.00,,,0.00,WUHU216HW,2013-06-03 08:18:00,
2013-06-03 04:20:00,66.1,62.4,29.70,North,0,1.8,1.8,88,0.00,,,0.00,WUHU216HW,2013-06-03 08:20:00,
2013-06-03 04:21:00,66.1,62.4,29.70,North,0,0.4,1.8,88,0.00,,,0.00,WUHU216HW,2013-06-03 08:21:00,
2013-06-03 04:22:00,66.1,62.4,29.70,North,0,0.4,1.8,88,0.00,,,0.00,WUHU216HW,2013-06-03 08:22:00,
2013-06-03 04:23:00,66.1,62.0,29.70,NNW,338,1.3,1.8,87,0.00,,,0.00,WUHU216HW,2013-06-03 08:23:00,
2013-06-03 04:25:00,66.2,62.2,29.71,NW,315,1.8,1.8,87,0.00,,,0.00,WUHU216HW,2013-06-03 08:25:00,
2013-06-03 04:27:00,66.2,62.2,29.71,NW,315,2.7,2.7,87,0.00,,,0.00,WUHU216HW,2013-06-03 08:27:00,
2013-06-03 04:28:00,66.2,62.2,29.71,NW,315,2.7,2.7,87,0.00,,,0.00,WUHU216HW,2013-06-03 08:28:00,
2013-06-03 04:29:00,66.4,62.4,29.71,NW,315,2.5,2.7,87,0.00,,,0.00,WUHU216HW,2013-06-03 08:29:00,
2013-06-03 04:32:00,66.4,62.4,29.71,NW,315,1.1,2.7,87,0.00,,,0.00,WUHU216HW,2013-06-03 08:32:00,
2013-06-03 04:33:00,66.4,62.4,29.71,NW,315,1.1,2.7,87,0.00,,,0.00,WUHU216HW,2013-06-03 08:33:00,
2013-06-03 04:34:00,66.6,62.6,29.71,NW,315,0.0,2.7,87,0.00,,,0.00,WUHU216HW,2013-06-03 08:34:00,
2013-06-03 04:35:00,66.6,62.6,29.71,NNE,23,0.4,2.7,87,0.00,,,0.00,WUHU216HW,2013-06-03 08:35:00,
2013-06-03 04:38:00,66.6,62.6,29.72,NW,315,0.4,1.8,87,0.00,,,0.00,WUHU216HW,2013-06-03 08:38:00,
2013-06-03 04:39:00,66.6,62.6,29.71,North,0,0.7,1.3,87,0.00,,,0.00,WUHU216HW,2013-06-03 08:39:00,
2013-06-03 04:40:00,66.4,62.4,29.71,NNE,23,0.0,1.1,87,0.00,,,0.00,WUHU216HW,2013-06-03 08:40:00,
2013-06-03 04:41:00,66.4,62.4,29.72,NNE,23,0.0,1.1,87,0.00,,,0.00,WUHU216HW,2013-06-03 08:41:00,
2013-06-03 04:43:00,66.4,62.7,29.72,North,0,0.0,0.7,88,0.00,,,0.00,WUHU216HW,2013-06-03 08:43:00,
2013-06-03 04:44:00,66.4,62.7,29.72,NNW,338,1.1,1.1,88,0.00,,,0.00,WUHU216HW,2013-06-03 08:44:00,
2013-06-03 04:46:00,66.2,62.6,29.72,NE,45,0.0,1.1,88,0.00,,,0.00,WUHU216HW,2013-06-03 08:46:00,
2013-06-03 04:47:00,66.2,62.6,29.72,NE,45,0.0,1.1,88,0.00,,,0.00,WUHU216HW,2013-06-03 08:47:00,
2013-06-03 04:49:00,66.2,62.6,29.72,NNE,23,0.9,1.1,88,0.00,,,0.00,WUHU216HW,2013-06-03 08:49:00,
2013-06-03 04:51:00,66.4,62.7,29.71,ESE,113,0.7,1.1,88,0.00,,,0.00,WUHU216HW,2013-06-03 08:51:00,
2013-06-03 04:52:00,66.2,62.6,29.71,ESE,113,0.4,1.1,88,0.00,,,0.00,WUHU216HW,2013-06-03 08:52:00,
2013-06-03 04:54:00,66.4,62.7,29.71,ESE,113,1.1,1.1,88,0.00,,,0.00,WUHU216HW,2013-06-03 08:54:00,
2013-06-03 04:55:00,66.4,62.7,29.71,ESE,113,1.1,1.1,88,0.00,,,0.00,WUHU216HW,2013-06-03 08:55:00,
2013-06-03 04:56:00,66.4,62.7,29.71,SW,225,0.0,1.1,88,0.00,,,0.00,WUHU216HW,2013-06-03 08:56:00,
2013-06-03 04:57:00,66.4,62.7,29.71,NNE,23,1.1,1.1,88,0.00,,,0.00,WUHU216HW,2013-06-03 08:57:00,
2013-06-03 04:59:00,66.4,62.7,29.71,ESE,113,0.4,1.1,88,0.00,,,0.00,WUHU216HW,2013-06-03 08:59:00,
2013-06-03 05:00:00,66.4,62.7,29.71,ESE,113,0.0,1.1,88,0.00,,,0.00,WUHU216HW,2013-06-03 09:00:00,
2013-06-03 05:02:00,66.4,63.0,29.71,ESE,113,0.0,1.1,89,0.00,,,0.00,WUHU216HW,2013-06-03 09:02:00,
2013-06-03 05:04:00,66.4,62.7,29.71,ESE,113,0.0,1.1,88,0.00,,,0.00,WUHU216HW,2013-06-03 09:04:00,
2013-06-03 05:05:00,66.4,62.7,29.72,ESE,113,0.0,1.1,88,0.00,,,0.00,WUHU216HW,2013-06-03 09:05:00,
2013-06-03 05:07:00,66.4,62.7,29.71,ESE,113,0.0,0.7,88,0.00,,,0.00,WUHU216HW,2013-06-03 09:07:00,
2013-06-03 05:09:00,66.4,62.7,29.72,ESE,113,0.0,0.4,88,0.00,,,0.00,WUHU216HW,2013-06-03 09:09:00,
2013-06-03 05:10:00,66.4,62.7,29.72,ESE,113,0.0,0.4,88,0.00,,,0.00,WUHU216HW,2013-06-03 09:10:00,
2013-06-03 05:11:00,66.4,62.7,29.72,East,90,0.0,0.4,88,0.00,,,0.00,WUHU216HW,2013-06-03 09:11:00,
2013-06-03 05:13:00,66.4,62.7,29.71,North,0,1.6,1.6,88,0.00,,,0.00,WUHU216HW,2013-06-03 09:13:00,
2013-06-03 05:14:00,66.6,62.9,29.71,NE,45,1.8,1.8,88,0.00,,,0.00,WUHU216HW,2013-06-03 09:14:00,
2013-06-03 05:15:00,66.6,62.9,29.71,North,0,1.3,1.8,88,0.00,,,0.00,WUHU216HW,2013-06-03 09:15:00,
2013-06-03 05:16:00,66.6,62.9,29.71,NNE,23,0.0,1.8,88,0.00,,,0.00,WUHU216HW,2013-06-03 09:16:00,
2013-06-03 05:17:00,66.6,63.2,29.71,NNE,23,0.0,1.8,89,0.00,,,0.00,WUHU216HW,2013-06-03 09:17:00,
2013-06-03 05:19:00,66.6,63.2,29.72,SSE,158,0.0,1.8,89,0.00,,,0.00,WUHU216HW,2013-06-03 09:19:00,
2013-06-03 05:21:00,66.6,63.2,29.72,SSE,158,0.7,1.8,89,0.00,,,0.00,WUHU216HW,2013-06-03 09:21:00,
2013-06-03 05:22:00,66.6,63.2,29.72,SE,135,1.1,1.8,89,0.00,,,0.00,WUHU216HW,2013-06-03 09:22:00,
2013-06-03 05:25:00,66.4,63.0,29.71,NE,45,0.0,1.1,89,0.00,,,0.00,WUHU216HW,2013-06-03 09:25:00,
2013-06-03 05:27:00,66.4,63.0,29.71,NE,45,0.0,1.1,89,0.00,,,0.00,WUHU216HW,2013-06-03 09:27:00,
2013-06-03 05:28:00,66.4,63.0,29.71,NE,45,0.0,1.1,89,0.00,,,0.00,WUHU216HW,2013-06-03 09:28:00,
2013-06-03 05:29:00,66.4,63.0,29.72,NE,45,0.0,1.1,89,0.00,,,0.00,WUHU216HW,2013-06-03 09:29:00,
2013-06-03 05:30:00,66.4,63.0,29.72,ENE,68,0.4,1.1,89,0.00,,,0.00,WUHU216HW,2013-06-03 09:30:00,
2013-06-03 05:33:00,66.6,63.2,29.71,East,90,0.4,0.4,89,0.00,,,0.00,WUHU216HW,2013-06-03 09:33:00,
2013-06-03 05:35:00,66.6,63.2,29.71,East,90,0.0,0.4,89,0.00,,,0.00,WUHU216HW,2013-06-03 09:35:00,
2013-06-03 05:36:00,66.6,63.2,29.71,East,90,0.0,0.4,89,0.00,,,0.00,WUHU216HW,2013-06-03 09:36:00,
2013-06-03 05:39:00,66.6,63.2,29.72,NE,45,0.4,1.1,89,0.00,,,0.00,WUHU216HW,2013-06-03 09:39:00,
2013-06-03 05:40:00,66.6,63.2,29.72,NE,45,0.0,1.1,89,0.00,,,0.00,WUHU216HW,2013-06-03 09:40:00,
2013-06-03 05:41:00,66.6,63.2,29.72,NE,45,0.0,1.1,89,0.00,,,0.00,WUHU216HW,2013-06-03 09:41:00,
2013-06-03 05:44:00,66.4,62.7,29.72,ENE,68,0.0,1.1,88,0.00,,,0.00,WUHU216HW,2013-06-03 09:44:00,
2013-06-03 05:45:00,66.4,62.7,29.72,ENE,68,0.0,1.1,88,0.00,,,0.00,WUHU216HW,2013-06-03 09:45:00,
2013-06-03 05:46:00,66.4,62.7,29.72,ENE,68,0.0,1.1,88,0.00,,,0.00,WUHU216HW,2013-06-03 09:46:00,
2013-06-03 05:47:00,66.4,62.7,29.72,ENE,68,0.0,0.4,88,0.00,,,0.00,WUHU216HW,2013-06-03 09:47:00,
2013-06-03 05:50:00,66.4,63.0,29.72,SE,135,1.6,1.6,89,0.00,,,0.00,WUHU216HW,2013-06-03 09:50:00,
2013-06-03 05:52:00,66.4,63.0,29.72,SE,135,2.0,2.0,89,0.00,,,0.00,WUHU216HW,2013-06-03 09:52:00,
2013-06-03 05:54:00,66.2,62.8,29.72,SE,135,0.0,2.0,89,0.00,,,0.00,WUHU216HW,2013-06-03 09:54:00,
2013-06-03 05:55:00,66.2,62.8,29.72,East,90,0.4,2.0,89,0.00,,,0.00,WUHU216HW,2013-06-03 09:55:00,
2013-06-03 05:56:00,66.2,62.8,29.72,ENE,68,1.3,2.0,89,0.00,,,0.00,WUHU216HW,2013-06-03 09:56:00,
2013-06-03 05:57:00,66.2,62.8,29.72,ENE,68,0.7,2.0,89,0.00,,,0.00,WUHU216HW,2013-06-03 09:57:00,
2013-06-03 06:00:00,66.2,62.8,29.72,NE,45,1.8,2.0,89,0.00,,,0.00,WUHU216HW,2013-06-03 10:00:00,
2013-06-03 06:01:00,66.2,62.8,29.72,SSE,158,0.9,2.0,89,0.00,,,0.00,WUHU216HW,2013-06-03 10:01:00,
2013-06-03 06:02:00,66.1,62.7,29.72,NE,45,0.9,1.8,89,0.00,,,0.00,WUHU216HW,2013-06-03 10:02:00,
2013-06-03 06:03:00,66.1,62.7,29.72,ENE,68,0.7,1.8,89,0.00,,,0.00,WUHU216HW,2013-06-03 10:03:00,
2013-06-03 06:06:00,66.1,62.7,29.72,NE,45,1.6,1.8,89,0.00,,,0.00,WUHU216HW,2013-06-03 10:06:00,
2013-06-03 06:07:00,65.9,62.6,29.72,SE,135,0.4,1.8,89,0.00,,,0.00,WUHU216HW,2013-06-03 10:07:00,
2013-06-03 06:08:00,65.9,62.6,29.72,ESE,113,1.1,1.8,89,0.00,,,0.00,WUHU216HW,2013-06-03 10:08:00,
2013-06-03 06:09:00,65.9,62.6,29.72,ESE,113,1.1,1.8,89,0.00,,,0.00,WUHU216HW,2013-06-03 10:09:00,
2013-06-03 06:11:00,65.9,62.6,29.72,ESE,113,1.1,1.6,89,0.00,,,0.00,WUHU216HW,2013-06-03 10:11:00,
2013-06-03 06:12:00,65.9,62.6,29.72,SSE,158,1.6,1.6,89,0.00,,,0.00,WUHU216HW,2013-06-03 10:12:00,
2013-06-03 06:13:00,65.9,62.6,29.72,SE,135,0.9,1.6,89,0.00,,,0.00,WUHU216HW,2013-06-03 10:13:00,
2013-06-03 06:14:00,65.9,62.6,29.72,SSE,158,0.4,1.6,89,0.00,,,0.00,WUHU216HW,2013-06-03 10:14:00,
2013-06-03 06:16:00,65.9,62.6,29.72,SSE,158,0.4,1.6,89,0.00,,,0.00,WUHU216HW,2013-06-03 10:16:00,
2013-06-03 06:17:00,65.9,62.6,29.73,SSE,158,0.0,1.6,89,0.00,,,0.00,WUHU216HW,2013-06-03 10:17:00,
2013-06-03 06:19:00,65.9,62.6,29.73,SE,135,0.0,1.6,89,0.00,,,0.00,WUHU216HW,2013-06-03 10:19:00,
2013-06-03 06:20:00,65.9,62.6,29.73,ESE,113,1.6,1.6,89,0.00,,,0.00,WUHU216HW,2013-06-03 10:20:00,
2013-06-03 06:22:00,65.9,62.6,29.73,ESE,113,0.7,1.6,89,0.00,,,0.00,WUHU216HW,2013-06-03 10:22:00,
2013-06-03 06:23:00,65.9,62.6,29.73,ESE,113,0.2,1.6,89,0.00,,,0.00,WUHU216HW,2013-06-03 10:23:00,
2013-06-03 06:24:00,65.9,62.6,29.73,ENE,68,0.4,1.6,89,0.00,,,0.00,WUHU216HW,2013-06-03 10:24:00,
2013-06-03 06:25:00,65.9,62.6,29.73,NE,45,1.8,1.8,89,0.00,,,0.00,WUHU216HW,2013-06-03 10:25:00,
2013-06-03 06:26:00,65.9,62.6,29.73,ENE,68,1.1,1.8,89,0.00,,,0.00,WUHU216HW,2013-06-03 10:26:00,
2013-06-03 06:27:00,65.9,62.6,29.73,ENE,68,0.7,1.8,89,0.00,,,0.00,WUHU216HW,2013-06-03 10:27:00,
2013-06-03 06:29:00,65.9,62.6,29.73,ENE,68,0.9,1.8,89,0.00,,,0.00,WUHU216HW,2013-06-03 10:29:00,
2013-06-03 06:31:00,65.9,62.6,29.73,East,90,0.4,1.8,89,0.00,,,0.00,WUHU216HW,2013-06-03 10:31:00,
2013-06-03 06:32:00,65.9,62.6,29.73,East,90,0.4,1.8,89,0.00,,,0.00,WUHU216HW,2013-06-03 10:32:00,
2013-06-03 06:34:00,65.9,62.6,29.73,ENE,68,0.0,1.8,89,0.00,,,0.00,WUHU216HW,2013-06-03 10:34:00,
2013-06-03 06:36:00,65.9,62.6,29.73,ESE,113,0.0,0.9,89,0.00,,,0.00,WUHU216HW,2013-06-03 10:36:00,
2013-06-03 06:37:00,65.9,62.6,29.73,ESE,113,0.0,0.9,89,0.00,,,0.00,WUHU216HW,2013-06-03 10:37:00,
2013-06-03 06:38:00,65.9,62.6,29.73,ESE,113,0.0,0.9,89,0.00,,,0.00,WUHU216HW,2013-06-03 10:38:00,
2013-06-03 06:40:00,65.9,62.6,29.73,East,90,0.0,0.9,89,0.00,,,0.00,WUHU216HW,2013-06-03 10:40:00,
2013-06-03 06:42:00,65.9,62.6,29.73,NE,45,2.7,2.7,89,0.00,,,0.00,WUHU216HW,2013-06-03 10:42:00,
2013-06-03 06:43:00,65.9,62.6,29.73,East,90,0.4,2.7,89,0.00,,,0.00,WUHU216HW,2013-06-03 10:43:00,
2013-06-03 06:44:00,65.9,62.6,29.73,NE,45,1.6,2.7,89,0.00,,,0.00,WUHU216HW,2013-06-03 10:44:00,
2013-06-03 06:46:00,65.9,62.6,29.73,NNE,23,0.4,2.7,89,0.00,,,0.00,WUHU216HW,2013-06-03 10:46:00,
2013-06-03 06:47:00,65.9,62.6,29.73,NNE,23,1.3,2.7,89,0.00,,,0.00,WUHU216HW,2013-06-03 10:47:00,
2013-06-03 06:48:00,65.9,62.6,29.73,NE,45,1.1,2.7,89,0.00,,,0.00,WUHU216HW,2013-06-03 10:48:00,
2013-06-03 06:49:00,65.9,62.6,29.73,ENE,68,0.7,2.7,89,0.00,,,0.00,WUHU216HW,2013-06-03 10:49:00,
2013-06-03 06:51:00,65.9,62.6,29.73,ESE,113,0.4,2.7,89,0.00,,,0.00,WUHU216HW,2013-06-03 10:51:00,
2013-06-03 06:53:00,65.9,62.6,29.73,SE,135,0.9,1.3,89,0.00,,,0.00,WUHU216HW,2013-06-03 10:53:00,
2013-06-03 06:54:00,65.9,62.6,29.73,ESE,113,0.4,1.3,89,0.00,,,0.00,WUHU216HW,2013-06-03 10:54:00,
2013-06-03 06:55:00,65.9,62.6,29.73,ESE,113,0.4,1.3,89,0.00,,,0.00,WUHU216HW,2013-06-03 10:55:00,
2013-06-03 06:56:00,65.9,62.2,29.73,ENE,68,0.7,1.3,88,0.00,,,0.00,WUHU216HW,2013-06-03 10:56:00,
2013-06-03 07:00:00,65.9,62.2,29.73,NE,45,0.0,1.1,88,0.00,,,0.00,WUHU216HW,2013-06-03 11:00:00,
2013-06-03 07:01:00,65.9,62.2,29.73,NE,45,0.0,0.9,88,0.00,,,0.00,WUHU216HW,2013-06-03 11:01:00,
2013-06-03 07:05:00,66.1,62.4,29.73,ESE,113,0.9,1.3,88,0.00,,,0.00,WUHU216HW,2013-06-03 11:05:00,
2013-06-03 07:06:00,66.1,62.4,29.73,ESE,113,1.8,1.8,88,0.00,,,0.00,WUHU216HW,2013-06-03 11:06:00,
2013-06-03 07:07:00,66.1,62.4,29.73,ESE,113,1.8,1.8,88,0.00,,,0.00,WUHU216HW,2013-06-03 11:07:00,
2013-06-03 07:08:00,66.1,62.4,29.73,East,90,0.2,1.8,88,0.00,,,0.00,WUHU216HW,2013-06-03 11:08:00,
2013-06-03 07:11:00,66.2,62.6,29.73,SE,135,0.4,1.8,88,0.00,,,0.00,WUHU216HW,2013-06-03 11:11:00,
2013-06-03 07:12:00,66.2,62.6,29.73,SSE,158,0.7,1.8,88,0.00,,,0.00,WUHU216HW,2013-06-03 11:12:00,
2013-06-03 07:16:00,66.2,62.6,29.73,ESE,113,0.0,0.9,88,0.00,,,0.00,WUHU216HW,2013-06-03 11:16:00,
2013-06-03 07:17:00,66.2,62.6,29.73,ESE,113,0.7,0.9,88,0.00,,,0.00,WUHU216HW,2013-06-03 11:17:00,
2013-06-03 07:18:00,66.2,62.6,29.73,ESE,113,0.7,0.9,88,0.00,,,0.00,WUHU216HW,2013-06-03 11:18:00,
2013-06-03 07:21:00,66.4,62.7,29.73,ENE,68,0.0,0.7,88,0.00,,,0.00,WUHU216HW,2013-06-03 11:21:00,
2013-06-03 07:22:00,66.4,62.7,29.73,ENE,68,0.0,0.7,88,0.00,,,0.00,WUHU216HW,2013-06-03 11:22:00,
2013-06-03 07:23:00,66.4,62.7,29.73,ENE,68,0.0,0.7,88,0.00,,,0.00,WUHU216HW,2013-06-03 11:23:00,
2013-06-03 07:27:00,66.6,62.9,29.74,SE,135,0.4,0.4,88,0.00,,,0.00,WUHU216HW,2013-06-03 11:27:00,
2013-06-03 07:28:00,66.6,62.9,29.74,SSE,158,1.1,1.1,88,0.00,,,0.00,WUHU216HW,2013-06-03 11:28:00,
2013-06-03 07:29:00,66.6,62.9,29.74,SSE,158,1.1,1.1,88,0.00,,,0.00,WUHU216HW,2013-06-03 11:29:00,
2013-06-03 07:33:00,66.4,62.7,29.74,SE,135,1.3,1.8,88,0.00,,,0.00,WUHU216HW,2013-06-03 11:33:00,
2013-06-03 07:34:00,66.4,62.7,29.74,SE,135,1.3,1.8,88,0.00,,,0.00,WUHU216HW,2013-06-03 11:34:00,
2013-06-03 07:38:00,66.2,62.6,29.74,SSE,158,0.0,1.8,88,0.00,,,0.00,WUHU216HW,2013-06-03 11:38:00,
2013-06-03 07:39:00,66.2,62.6,29.73,South,180,0.0,1.8,88,0.00,,,0.00,WUHU216HW,2013-06-03 11:39:00,
2013-06-03 07:40:00,66.2,62.6,29.73,South,180,0.0,1.8,88,0.00,,,0.00,WUHU216HW,2013-06-03 11:40:00,
2013-06-03 07:43:00,66.4,62.7,29.73,SSW,203,0.0,0.4,88,0.00,,,0.00,WUHU216HW,2013-06-03 11:43:00,
2013-06-03 07:45:00,66.6,62.9,29.73,SSW,203,0.0,0.0,88,0.00,,,0.00,WUHU216HW,2013-06-03 11:45:00,
2013-06-03 07:50:00,67.0,63.3,29.74,SW,225,0.7,0.7,88,0.00,,,0.00,WUHU216HW,2013-06-03 11:50:00,
2013-06-03 07:51:00,67.0,63.3,29.74,SW,225,0.9,0.9,88,0.00,,,0.00,WUHU216HW,2013-06-03 11:51:00,
2013-06-03 07:55:00,67.3,63.6,29.74,SW,225,1.3,1.3,88,0.00,,,0.00,WUHU216HW,2013-06-03 11:55:00,
2013-06-03 07:57:00,67.3,63.3,29.74,SW,225,0.4,1.3,87,0.00,,,0.00,WUHU216HW,2013-06-03 11:57:00,
2013-06-03 07:58:00,67.3,63.3,29.74,SW,225,0.4,1.3,87,0.00,,,0.00,WUHU216HW,2013-06-03 11:58:00,
2013-06-03 08:00:00,67.5,63.5,29.74,SW,225,0.2,1.3,87,0.00,,,0.00,WUHU216HW,2013-06-03 12:00:00,
2013-06-03 08:01:00,67.5,63.5,29.74,SW,225,0.0,1.3,87,0.00,,,0.00,WUHU216HW,2013-06-03 12:01:00,
2013-06-03 08:03:00,67.7,63.4,29.74,SW,225,0.4,1.3,86,0.00,,,0.00,WUHU216HW,2013-06-03 12:03:00,
2013-06-03 08:04:00,67.7,63.4,29.74,SW,225,0.4,1.3,86,0.00,,,0.00,WUHU216HW,2013-06-03 12:04:00,
2013-06-03 08:06:00,68.0,63.7,29.74,WSW,248,0.0,0.9,86,0.00,,,0.00,WUHU216HW,2013-06-03 12:06:00,
2013-06-03 08:07:00,68.2,63.9,29.74,WSW,248,0.0,0.9,86,0.00,,,0.00,WUHU216HW,2013-06-03 12:07:00,
2013-06-03 08:08:00,68.4,64.0,29.74,WSW,248,0.0,0.9,86,0.00,,,0.00,WUHU216HW,2013-06-03 12:08:00,
2013-06-03 08:10:00,68.8,64.4,29.74,WSW,248,0.0,0.9,86,0.00,,,0.00,WUHU216HW,2013-06-03 12:10:00,
2013-06-03 08:12:00,68.9,64.3,29.73,SW,225,0.0,0.9,85,0.00,,,0.00,WUHU216HW,2013-06-03 12:12:00,
2013-06-03 08:13:00,69.1,64.1,29.73,SW,225,0.0,0.9,84,0.00,,,0.00,WUHU216HW,2013-06-03 12:13:00,
2013-06-03 08:15:00,69.5,64.4,29.73,SW,225,0.0,0.0,84,0.00,,,0.00,WUHU216HW,2013-06-03 12:15:00,
2013-06-03 08:16:00,69.5,64.4,29.73,SW,225,0.0,0.0,84,0.00,,,0.00,WUHU216HW,2013-06-03 12:16:00,
2013-06-03 08:17:00,69.5,64.4,29.73,SW,225,0.0,0.0,84,0.00,,,0.00,WUHU216HW,2013-06-03 12:17:00,
2013-06-03 08:18:00,69.5,64.4,29.73,SW,225,0.0,0.0,84,0.00,,,0.00,WUHU216HW,2013-06-03 12:18:00,
2013-06-03 08:19:00,69.5,64.4,29.73,SW,225,0.0,0.0,84,0.00,,,0.00,WUHU216HW,2013-06-03 12:19:00,
2013-06-03 08:22:00,69.5,64.4,29.73,SW,225,0.0,0.0,84,0.00,,,0.00,WUHU216HW,2013-06-03 12:22:00,
2013-06-03 08:23:00,69.5,64.4,29.73,SW,225,0.0,0.0,84,0.00,,,0.00,WUHU216HW,2013-06-03 12:23:00,
2013-06-03 08:24:00,69.5,64.4,29.73,SW,225,0.0,0.0,84,0.00,,,0.00,WUHU216HW,2013-06-03 12:24:00,
2013-06-03 08:45:00,72.0,64.8,29.74,West,270,1.8,1.8,78,0.00,,,0.00,WUHU216HW,2013-06-03 12:45:00,
2013-06-03 08:46:00,72.0,64.8,29.74,SW,225,0.7,1.8,78,0.00,,,0.00,WUHU216HW,2013-06-03 12:46:00,
2013-06-03 08:50:00,72.7,65.5,29.74,North,0,0.4,1.8,78,0.00,,,0.00,WUHU216HW,2013-06-03 12:50:00,
2013-06-03 08:51:00,72.9,65.7,29.74,West,270,2.5,2.5,78,0.00,,,0.00,WUHU216HW,2013-06-03 12:51:00,
2013-06-03 08:52:00,72.9,65.7,29.74,West,270,2.5,2.5,78,0.00,,,0.00,WUHU216HW,2013-06-03 12:52:00,
2013-06-03 08:54:00,73.3,64.9,29.74,NW,315,2.5,2.5,75,0.00,,,0.00,WUHU216HW,2013-06-03 12:54:00,
2013-06-03 08:55:00,73.3,64.9,29.74,WNW,293,1.8,2.5,75,0.00,,,0.00,WUHU216HW,2013-06-03 12:55:00,
2013-06-03 08:56:00,73.3,64.9,29.74,WNW,293,2.7,2.7,75,0.00,,,0.00,WUHU216HW,2013-06-03 12:56:00,
2013-06-03 08:57:00,73.3,64.9,29.74,WNW,293,2.7,2.7,75,0.00,,,0.00,WUHU216HW,2013-06-03 12:57:00,
2013-06-03 08:59:00,73.6,65.3,29.74,WNW,293,2.0,2.7,75,0.00,,,0.00,WUHU216HW,2013-06-03 12:59:00,
2013-06-03 09:00:00,73.8,65.1,29.74,NW,315,2.5,2.7,74,0.00,,,0.00,WUHU216HW,2013-06-03 13:00:00,
2013-06-03 09:01:00,74.0,64.8,29.74,WNW,293,0.7,2.7,73,0.00,,,0.00,WUHU216HW,2013-06-03 13:01:00,
2013-06-03 09:02:00,74.2,65.0,29.74,West,270,0.7,2.7,73,0.00,,,0.00,WUHU216HW,2013-06-03 13:02:00,
2013-06-03 09:03:00,74.2,65.0,29.74,West,270,0.7,2.7,73,0.00,,,0.00,WUHU216HW,2013-06-03 13:03:00,
2013-06-03 09:04:00,74.5,65.4,29.74,ESE,113,0.4,2.7,73,0.00,,,0.00,WUHU216HW,2013-06-03 13:04:00,
2013-06-03 09:05:00,74.5,65.4,29.74,ESE,113,0.0,2.7,73,0.00,,,0.00,WUHU216HW,2013-06-03 13:05:00,
2013-06-03 09:07:00,74.7,65.1,29.74,ESE,113,1.3,2.5,72,0.00,,,0.00,WUHU216HW,2013-06-03 13:07:00,
2013-06-03 09:08:00,74.9,64.9,29.74,ESE,113,1.8,2.5,71,0.00,,,0.00,WUHU216HW,2013-06-03 13:08:00,
2013-06-03 09:10:00,75.1,65.1,29.74,SE,135,2.2,2.2,71,0.00,,,0.00,WUHU216HW,2013-06-03 13:10:00,
2013-06-03 09:11:00,75.1,63.8,29.74,NNE,23,1.8,2.2,68,0.00,,,0.00,WUHU216HW,2013-06-03 13:11:00,
2013-06-03 09:14:00,75.1,64.6,29.74,ESE,113,0.9,2.2,70,0.00,,,0.00,WUHU216HW,2013-06-03 13:14:00,
2013-06-03 09:15:00,75.2,63.9,29.74,SSE,158,1.6,2.2,68,0.00,,,0.00,WUHU216HW,2013-06-03 13:15:00,
2013-06-03 09:16:00,75.2,63.9,29.74,SSE,158,1.6,2.2,68,0.00,,,0.00,WUHU216HW,2013-06-03 13:16:00,
2013-06-03 09:18:00,75.2,63.9,29.74,ENE,68,1.6,2.2,68,0.00,,,0.00,WUHU216HW,2013-06-03 13:18:00,
2013-06-03 09:19:00,75.4,63.3,29.74,SSE,158,2.5,2.5,66,0.00,,,0.00,WUHU216HW,2013-06-03 13:19:00,
2013-06-03 09:21:00,75.4,63.3,29.74,South,180,2.0,2.5,66,0.00,,,0.00,WUHU216HW,2013-06-03 13:21:00,
2013-06-03 09:23:00,75.1,63.4,29.74,North,0,2.5,3.1,67,0.00,,,0.00,WUHU216HW,2013-06-03 13:23:00,
2013-06-03 09:25:00,74.9,62.7,29.74,East,90,3.8,3.8,66,0.00,,,0.00,WUHU216HW,2013-06-03 13:25:00,
2013-06-03 09:26:00,74.7,62.6,29.74,NNE,23,3.4,3.8,66,0.00,,,0.00,WUHU216HW,2013-06-03 13:26:00,
2013-06-03 09:27:00,74.7,62.6,29.74,NNE,23,3.4,3.8,66,0.00,,,0.00,WUHU216HW,2013-06-03 13:27:00,
2013-06-03 09:30:00,74.9,63.6,29.74,North,0,2.7,4.0,68,0.00,,,0.00,WUHU216HW,2013-06-03 13:30:00,
2013-06-03 09:31:00,74.9,63.6,29.74,North,0,2.7,4.0,68,0.00,,,0.00,WUHU216HW,2013-06-03 13:31:00,
2013-06-03 09:32:00,75.1,63.4,29.74,NW,315,2.5,4.0,67,0.00,,,0.00,WUHU216HW,2013-06-03 13:32:00,
2013-06-03 09:35:00,75.6,63.5,29.74,North,0,1.1,4.0,66,0.00,,,0.00,WUHU216HW,2013-06-03 13:35:00,
2013-06-03 09:37:00,76.0,63.7,29.75,NW,315,3.1,4.0,66,0.00,,,0.00,WUHU216HW,2013-06-03 13:37:00,
2013-06-03 09:38:00,76.1,63.9,29.75,NNW,338,0.7,4.0,66,0.00,,,0.00,WUHU216HW,2013-06-03 13:38:00,
2013-06-03 09:40:00,76.3,64.5,29.75,NNW,338,0.0,3.1,67,0.00,,,0.00,WUHU216HW,2013-06-03 13:40:00,
2013-06-03 09:42:00,76.5,63.8,29.75,North,0,1.6,3.1,65,0.00,,,0.00,WUHU216HW,2013-06-03 13:42:00,
2013-06-03 09:43:00,76.5,63.8,29.74,North,0,1.1,3.1,65,0.00,,,0.00,WUHU216HW,2013-06-03 13:43:00,
2013-06-03 09:45:00,76.7,64.0,29.75,North,0,0.4,3.1,65,0.00,,,0.00,WUHU216HW,2013-06-03 13:45:00,
2013-06-03 09:47:00,76.7,64.0,29.74,NNW,338,0.9,1.6,65,0.00,,,0.00,WUHU216HW,2013-06-03 13:47:00,
2013-06-03 09:48:00,76.7,64.0,29.74,North,0,1.1,1.8,65,0.00,,,0.00,WUHU216HW,2013-06-03 13:48:00,
2013-06-03 09:49:00,76.9,64.2,29.74,North,0,1.1,1.8,65,0.00,,,0.00,WUHU216HW,2013-06-03 13:49:00,
2013-06-03 09:51:00,77.0,64.8,29.74,NNE,23,0.7,1.8,66,0.00,,,0.00,WUHU216HW,2013-06-03 13:51:00,
2013-06-03 09:52:00,77.0,64.8,29.74,NNE,23,0.7,1.8,66,0.00,,,0.00,WUHU216HW,2013-06-03 13:52:00,
2013-06-03 09:54:00,77.0,64.8,29.74,North,0,1.1,1.8,66,0.00,,,0.00,WUHU216HW,2013-06-03 13:54:00,
2013-06-03 09:55:00,77.4,64.7,29.74,NW,315,0.7,1.8,65,0.00,,,0.00,WUHU216HW,2013-06-03 13:55:00,
2013-06-03 09:57:00,77.6,64.9,29.74,WNW,293,0.9,1.8,65,0.00,,,0.00,WUHU216HW,2013-06-03 13:57:00,
2013-06-03 09:59:00,77.9,63.5,29.74,NNE,23,2.9,2.9,61,0.00,,,0.00,WUHU216HW,2013-06-03 13:59:00,
2013-06-03 10:00:00,78.1,64.1,29.74,WNW,293,2.5,2.9,62,0.00,,,0.00,WUHU216HW,2013-06-03 14:00:00,
2013-06-03 10:02:00,78.1,62.6,29.74,NW,315,1.3,2.9,59,0.00,,,0.00,WUHU216HW,2013-06-03 14:02:00,
2013-06-03 10:04:00,78.1,63.2,29.74,North,0,2.2,2.9,60,0.00,,,0.00,WUHU216HW,2013-06-03 14:04:00,
2013-06-03 10:05:00,78.1,63.2,29.74,NNW,338,3.4,3.4,60,0.00,,,0.00,WUHU216HW,2013-06-03 14:05:00,
2013-06-03 10:06:00,78.3,62.8,29.74,NW,315,5.8,5.8,59,0.00,,,0.00,WUHU216HW,2013-06-03 14:06:00,
2013-06-03 10:07:00,78.3,63.4,29.74,NW,315,2.5,5.8,60,0.00,,,0.00,WUHU216HW,2013-06-03 14:07:00,
2013-06-03 10:08:00,78.3,62.4,29.74,North,0,4.0,5.8,58,0.00,,,0.00,WUHU216HW,2013-06-03 14:08:00,
2013-06-03 10:10:00,78.1,62.2,29.74,North,0,2.5,5.8,58,0.00,,,0.00,WUHU216HW,2013-06-03 14:10:00,
2013-06-03 10:11:00,78.1,62.2,29.74,North,0,2.5,5.8,58,0.00,,,0.00,WUHU216HW,2013-06-03 14:11:00,
2013-06-03 10:12:00,77.8,61.3,29.74,North,0,1.8,5.8,57,0.00,,,0.00,WUHU216HW,2013-06-03 14:12:00,
2013-06-03 10:13:00,77.6,61.7,29.74,North,0,1.1,5.8,58,0.00,,,0.00,WUHU216HW,2013-06-03 14:13:00,
2013-06-03 10:14:00,77.6,62.1,29.74,NNE,23,0.4,5.8,59,0.00,,,0.00,WUHU216HW,2013-06-03 14:14:00,
2013-06-03 10:15:00,77.6,62.6,29.74,North,0,1.1,5.8,60,0.00,,,0.00,WUHU216HW,2013-06-03 14:15:00,
2013-06-03 10:16:00,77.4,61.5,29.74,NE,45,1.8,4.5,58,0.00,,,0.00,WUHU216HW,2013-06-03 14:16:00,
2013-06-03 10:18:00,77.0,61.1,29.74,NNE,23,2.2,4.5,58,0.00,,,0.00,WUHU216HW,2013-06-03 14:18:00,
2013-06-03 10:19:00,76.9,61.5,29.74,NW,315,1.1,4.5,59,0.00,,,0.00,WUHU216HW,2013-06-03 14:19:00,
2013-06-03 10:20:00,76.7,61.3,29.74,North,0,1.3,4.5,59,0.00,,,0.00,WUHU216HW,2013-06-03 14:20:00,
2013-06-03 10:22:00,76.9,62.4,29.74,NNW,338,0.9,2.2,61,0.00,,,0.00,WUHU216HW,2013-06-03 14:22:00,
2013-06-03 10:23:00,77.0,62.6,29.74,NW,315,1.8,2.2,61,0.00,,,0.00,WUHU216HW,2013-06-03 14:23:00,
2013-06-03 10:24:00,77.2,62.7,29.74,NW,315,3.4,3.4,61,0.00,,,0.00,WUHU216HW,2013-06-03 14:24:00,
2013-06-03 10:25:00,77.4,62.9,29.73,NW,315,1.8,3.4,61,0.00,,,0.00,WUHU216HW,2013-06-03 14:25:00,
2013-06-03 10:26:00,77.4,62.9,29.73,NW,315,1.8,3.4,61,0.00,,,0.00,WUHU216HW,2013-06-03 14:26:00,
2013-06-03 10:27:00,77.6,63.6,29.73,NW,315,2.5,3.4,62,0.00,,,0.00,WUHU216HW,2013-06-03 14:27:00,
2013-06-03 10:29:00,78.7,64.2,29.73,West,270,0.7,3.4,61,0.00,,,0.00,WUHU216HW,2013-06-03 14:29:00,
2013-06-03 10:30:00,78.8,63.4,29.74,North,0,1.3,3.4,59,0.00,,,0.00,WUHU216HW,2013-06-03 14:30:00,
2013-06-03 10:31:00,78.8,63.4,29.74,North,0,1.3,3.4,59,0.00,,,0.00,WUHU216HW,2013-06-03 14:31:00,
2013-06-03 10:32:00,79.0,63.0,29.74,NNE,23,1.8,3.4,58,0.00,,,0.00,WUHU216HW,2013-06-03 14:32:00,
2013-06-03 10:35:00,79.4,62.3,29.74,NNE,23,4.0,4.0,56,0.00,,,0.00,WUHU216HW,2013-06-03 14:35:00,
2013-06-03 10:36:00,79.6,63.0,29.74,East,90,1.8,4.0,57,0.00,,,0.00,WUHU216HW,2013-06-03 14:36:00,
2013-06-03 10:37:00,79.7,63.2,29.74,NW,315,0.7,4.0,57,0.00,,,0.00,WUHU216HW,2013-06-03 14:37:00,
2013-06-03 10:38:00,79.7,63.2,29.74,NW,315,0.7,4.0,57,0.00,,,0.00,WUHU216HW,2013-06-03 14:38:00,
2013-06-03 10:40:00,79.9,62.8,29.74,NE,45,3.1,4.0,56,0.00,,,0.00,WUHU216HW,2013-06-03 14:40:00,
2013-06-03 10:41:00,79.9,62.3,29.74,WNW,293,3.4,4.0,55,0.00,,,0.00,WUHU216HW,2013-06-03 14:41:00,
2013-06-03 10:42:00,79.7,61.6,29.74,North,0,2.5,4.0,54,0.00,,,0.00,WUHU216HW,2013-06-03 14:42:00,
2013-06-03 10:43:00,79.7,61.6,29.74,North,0,2.5,4.0,54,0.00,,,0.00,WUHU216HW,2013-06-03 14:43:00,
2013-06-03 10:44:00,79.6,62.5,29.74,North,0,1.3,3.8,56,0.00,,,0.00,WUHU216HW,2013-06-03 14:44:00,
2013-06-03 10:46:00,79.6,61.9,29.74,ENE,68,2.5,3.8,55,0.00,,,0.00,WUHU216HW,2013-06-03 14:46:00,
2013-06-03 10:47:00,79.4,60.8,29.73,SE,135,2.0,3.8,53,0.00,,,0.00,WUHU216HW,2013-06-03 14:47:00,
2013-06-03 10:48:00,79.4,61.7,29.73,NE,45,2.5,3.8,55,0.00,,,0.00,WUHU216HW,2013-06-03 14:48:00,
2013-06-03 10:49:00,79.2,61.7,29.73,North,0,4.0,4.0,55,0.00,,,0.00,WUHU216HW,2013-06-03 14:49:00,
2013-06-03 10:51:00,79.0,60.4,29.73,ENE,68,3.1,4.0,53,0.00,,,0.00,WUHU216HW,2013-06-03 14:51:00,
2013-06-03 10:52:00,78.8,60.8,29.73,East,90,2.0,4.0,54,0.00,,,0.00,WUHU216HW,2013-06-03 14:52:00,
2013-06-03 10:53:00,78.7,60.6,29.74,WSW,248,2.9,4.0,54,0.00,,,0.00,WUHU216HW,2013-06-03 14:53:00,
2013-06-03 10:54:00,78.5,60.0,29.74,NE,45,2.9,4.0,53,0.00,,,0.00,WUHU216HW,2013-06-03 14:54:00,
2013-06-03 10:56:00,78.1,60.1,29.73,East,90,2.2,4.0,54,0.00,,,0.00,WUHU216HW,2013-06-03 14:56:00,
2013-06-03 10:57:00,77.9,60.5,29.73,North,0,1.3,4.0,55,0.00,,,0.00,WUHU216HW,2013-06-03 14:57:00,
2013-06-03 10:59:00,77.8,59.8,29.73,NE,45,6.5,6.5,54,0.00,,,0.00,WUHU216HW,2013-06-03 14:59:00,
2013-06-03 11:00:00,77.4,60.0,29.74,North,0,1.8,6.5,55,0.00,,,0.00,WUHU216HW,2013-06-03 15:00:00,
2013-06-03 11:02:00,77.4,60.9,29.73,North,0,1.1,6.5,57,0.00,,,0.00,WUHU216HW,2013-06-03 15:02:00,
2013-06-03 11:03:00,77.8,61.3,29.73,SSW,203,1.8,6.5,57,0.00,,,0.00,WUHU216HW,2013-06-03 15:03:00,
2013-06-03 11:04:00,77.9,61.5,29.73,NNE,23,4.0,6.5,57,0.00,,,0.00,WUHU216HW,2013-06-03 15:04:00,
2013-06-03 11:07:00,78.5,61.5,29.73,NW,315,4.0,6.5,56,0.00,,,0.00,WUHU216HW,2013-06-03 15:07:00,
2013-06-03 11:08:00,79.4,63.4,29.73,SE,135,2.5,6.5,58,0.00,,,0.00,WUHU216HW,2013-06-03 15:08:00,
2013-06-03 11:09:00,79.4,63.4,29.73,SE,135,2.5,4.0,58,0.00,,,0.00,WUHU216HW,2013-06-03 15:09:00,
2013-06-03 11:12:00,80.6,62.4,29.73,NE,45,2.9,4.0,54,0.00,,,0.00,WUHU216HW,2013-06-03 15:12:00,
2013-06-03 11:14:00,80.6,61.4,29.73,NNE,23,2.5,8.1,52,0.00,,,0.00,WUHU216HW,2013-06-03 15:14:00,
2013-06-03 11:15:00,80.6,61.8,29.73,SE,135,1.3,8.1,53,0.00,,,0.00,WUHU216HW,2013-06-03 15:15:00,
2013-06-03 11:16:00,80.6,61.8,29.73,SE,135,1.3,8.1,53,0.00,,,0.00,WUHU216HW,2013-06-03 15:16:00,
2013-06-03 11:17:00,80.5,60.1,29.73,ENE,68,4.7,8.1,50,0.00,,,0.00,WUHU216HW,2013-06-03 15:17:00,
2013-06-03 11:20:00,80.3,60.5,29.73,NNW,338,4.3,8.1,51,0.00,,,0.00,WUHU216HW,2013-06-03 15:20:00,
2013-06-03 11:21:00,80.3,60.5,29.73,NNW,338,4.3,8.1,51,0.00,,,0.00,WUHU216HW,2013-06-03 15:21:00,
2013-06-03 11:22:00,80.3,61.0,29.73,North,0,4.0,8.1,52,0.00,,,0.00,WUHU216HW,2013-06-03 15:22:00,
2013-06-03 11:23:00,80.3,61.0,29.73,NE,45,2.2,8.1,52,0.00,,,0.00,WUHU216HW,2013-06-03 15:23:00,
2013-06-03 11:25:00,80.6,61.8,29.73,WNW,293,2.2,4.7,53,0.00,,,0.00,WUHU216HW,2013-06-03 15:25:00,
2013-06-03 11:26:00,80.6,61.8,29.73,WNW,293,2.2,4.7,53,0.00,,,0.00,WUHU216HW,2013-06-03 15:26:00,
2013-06-03 11:27:00,80.8,62.6,29.73,WNW,293,1.8,4.3,54,0.00,,,0.00,WUHU216HW,2013-06-03 15:27:00,
2013-06-03 11:28:00,81.0,62.7,29.73,East,90,3.8,4.3,54,0.00,,,0.00,WUHU216HW,2013-06-03 15:28:00,
2013-06-03 11:31:00,81.0,63.7,29.73,NE,45,2.7,4.0,56,0.00,,,0.00,WUHU216HW,2013-06-03 15:31:00,
2013-06-03 11:32:00,81.2,62.9,29.73,NNW,338,2.5,3.8,54,0.00,,,0.00,WUHU216HW,2013-06-03 15:32:00,
2013-06-03 11:33:00,81.2,62.9,29.73,NNW,338,2.5,3.8,54,0.00,,,0.00,WUHU216HW,2013-06-03 15:33:00,
2013-06-03 11:37:00,81.5,61.7,29.73,NE,45,1.3,7.4,51,0.00,,,0.00,WUHU216HW,2013-06-03 15:37:00,
2013-06-03 11:38:00,81.4,61.5,29.73,North,0,3.8,7.4,51,0.00,,,0.00,WUHU216HW,2013-06-03 15:38:00,
2013-06-03 11:41:00,80.6,61.4,29.73,NE,45,3.8,7.4,52,0.00,,,0.00,WUHU216HW,2013-06-03 15:41:00,
2013-06-03 11:42:00,80.5,61.2,29.73,NNE,23,4.0,7.4,52,0.00,,,0.00,WUHU216HW,2013-06-03 15:42:00,
2013-06-03 11:43:00,80.5,61.2,29.73,ESE,113,2.7,7.4,52,0.00,,,0.00,WUHU216HW,2013-06-03 15:43:00,
2013-06-03 11:44:00,80.5,61.2,29.73,ESE,113,2.7,7.4,52,0.00,,,0.00,WUHU216HW,2013-06-03 15:44:00,
2013-06-03 11:46:00,80.6,61.8,29.73,NE,45,3.1,4.0,53,0.00,,,0.00,WUHU216HW,2013-06-03 15:46:00,
2013-06-03 11:47:00,80.8,61.5,29.73,WNW,293,2.2,4.0,52,0.00,,,0.00,WUHU216HW,2013-06-03 15:47:00,
2013-06-03 11:49:00,81.0,61.1,29.73,NNW,338,3.4,4.0,51,0.00,,,0.00,WUHU216HW,2013-06-03 15:49:00,
2013-06-03 11:51:00,81.0,60.7,29.73,NE,45,4.0,4.7,50,0.00,,,0.00,WUHU216HW,2013-06-03 15:51:00,
2013-06-03 11:52:00,80.8,61.0,29.73,North,0,1.6,4.7,51,0.00,,,0.00,WUHU216HW,2013-06-03 15:52:00,
2013-06-03 11:53:00,80.6,61.4,29.73,NNE,23,3.1,4.7,52,0.00,,,0.00,WUHU216HW,2013-06-03 15:53:00,
2013-06-03 11:54:00,80.5,60.7,29.73,NW,315,2.0,4.7,51,0.00,,,0.00,WUHU216HW,2013-06-03 15:54:00,
2013-06-03 11:55:00,80.3,61.0,29.73,North,0,3.6,4.7,52,0.00,,,0.00,WUHU216HW,2013-06-03 15:55:00,
2013-06-03 11:56:00,80.3,61.0,29.73,North,0,3.6,4.7,52,0.00,,,0.00,WUHU216HW,2013-06-03 15:56:00,
2013-06-03 11:58:00,80.3,61.0,29.73,NNW,338,2.0,4.7,52,0.00,,,0.00,WUHU216HW,2013-06-03 15:58:00,
2013-06-03 12:01:00,80.3,62.6,29.73,NNW,338,2.2,3.6,55,0.00,,,0.00,WUHU216HW,2013-06-03 16:01:00,
2013-06-03 12:02:00,80.6,62.4,29.73,NW,315,2.7,3.6,54,0.00,,,0.00,WUHU216HW,2013-06-03 16:02:00,
2013-06-03 12:03:00,80.8,61.5,29.73,ENE,68,2.0,3.6,52,0.00,,,0.00,WUHU216HW,2013-06-03 16:03:00,
2013-06-03 12:04:00,80.8,61.5,29.73,ENE,68,2.0,3.6,52,0.00,,,0.00,WUHU216HW,2013-06-03 16:04:00,
2013-06-03 12:07:00,80.6,60.3,29.73,North,0,1.1,2.9,50,0.00,,,0.00,WUHU216HW,2013-06-03 16:07:00,
2013-06-03 12:08:00,80.3,59.9,29.73,NE,45,1.3,2.7,50,0.00,,,0.00,WUHU216HW,2013-06-03 16:08:00,
2013-06-03 12:11:00,80.1,60.3,29.73,NNE,23,1.1,2.7,51,0.00,,,0.00,WUHU216HW,2013-06-03 16:11:00,
2013-06-03 12:12:00,80.1,60.8,29.73,ESE,113,1.1,2.2,52,0.00,,,0.00,WUHU216HW,2013-06-03 16:12:00,
2013-06-03 12:13:00,80.3,61.0,29.73,South,180,1.1,2.2,52,0.00,,,0.00,WUHU216HW,2013-06-03 16:13:00,
2013-06-03 12:14:00,80.3,61.6,29.73,NNW,338,0.4,1.8,53,0.00,,,0.00,WUHU216HW,2013-06-03 16:14:00,
2013-06-03 12:16:00,80.6,61.8,29.73,NE,45,3.1,3.1,53,0.00,,,0.00,WUHU216HW,2013-06-03 16:16:00,
2013-06-03 12:17:00,81.5,62.6,29.72,ENE,68,1.1,3.1,53,0.00,,,0.00,WUHU216HW,2013-06-03 16:17:00,
2013-06-03 12:19:00,82.4,61.9,29.73,ESE,113,1.8,3.1,50,0.00,,,0.00,WUHU216HW,2013-06-03 16:19:00,
2013-06-03 12:20:00,82.4,61.9,29.73,ESE,113,1.8,3.1,50,0.00,,,0.00,WUHU216HW,2013-06-03 16:20:00,
2013-06-03 12:23:00,82.6,62.1,29.73,North,0,1.3,3.1,50,0.00,,,0.00,WUHU216HW,2013-06-03 16:23:00,
2013-06-03 12:24:00,82.4,63.0,29.73,NNE,23,4.3,4.3,52,0.00,,,0.00,WUHU216HW,2013-06-03 16:24:00,
2013-06-03 12:25:00,82.4,61.9,29.73,NW,315,1.6,4.3,50,0.00,,,0.00,WUHU216HW,2013-06-03 16:25:00,
2013-06-03 12:28:00,82.3,62.3,29.72,NNE,23,0.9,4.3,51,0.00,,,0.00,WUHU216HW,2013-06-03 16:28:00,
2013-06-03 12:30:00,82.4,63.0,29.72,NNE,23,2.5,4.3,52,0.00,,,0.00,WUHU216HW,2013-06-03 16:30:00,
2013-06-03 12:31:00,82.6,62.7,29.72,NW,315,3.6,4.3,51,0.00,,,0.00,WUHU216HW,2013-06-03 16:31:00,
2013-06-03 12:32:00,82.8,63.4,29.72,NW,315,4.3,4.3,52,0.00,,,0.00,WUHU216HW,2013-06-03 16:32:00,
2013-06-03 12:33:00,83.5,64.1,29.72,NNW,338,1.3,4.3,52,0.00,,,0.00,WUHU216HW,2013-06-03 16:33:00,
2013-06-03 12:35:00,84.1,63.5,29.72,NE,45,4.0,4.3,50,0.00,,,0.00,WUHU216HW,2013-06-03 16:35:00,
2013-06-03 12:36:00,84.6,64.1,29.72,NE,45,2.0,4.3,50,0.00,,,0.00,WUHU216HW,2013-06-03 16:36:00,
2013-06-03 12:37:00,84.6,64.1,29.72,NE,45,2.0,4.3,50,0.00,,,0.00,WUHU216HW,2013-06-03 16:37:00,
2013-06-03 12:39:00,84.6,64.1,29.72,North,0,4.0,4.3,50,0.00,,,0.00,WUHU216HW,2013-06-03 16:39:00,
2013-06-03 12:40:00,84.8,64.2,29.72,North,0,4.3,4.3,50,0.00,,,0.00,WUHU216HW,2013-06-03 16:40:00,
2013-06-03 12:41:00,84.6,63.5,29.72,NW,315,3.6,4.3,49,0.00,,,0.00,WUHU216HW,2013-06-03 16:41:00,
2013-06-03 12:42:00,84.2,62.5,29.72,NNW,338,3.6,4.3,48,0.00,,,0.00,WUHU216HW,2013-06-03 16:42:00,
2013-06-03 12:43:00,84.2,62.5,29.72,NNW,338,3.6,4.3,48,0.00,,,0.00,WUHU216HW,2013-06-03 16:43:00,
2013-06-03 12:44:00,84.1,62.3,29.72,NW,315,4.9,4.9,48,0.00,,,0.00,WUHU216HW,2013-06-03 16:44:00,
2013-06-03 12:45:00,83.9,62.7,29.72,NNE,23,4.3,4.9,49,0.00,,,0.00,WUHU216HW,2013-06-03 16:45:00,
2013-06-03 12:46:00,83.7,61.9,29.72,North,0,6.7,6.7,48,0.00,,,0.00,WUHU216HW,2013-06-03 16:46:00,
2013-06-03 12:48:00,83.7,61.9,29.72,NNW,338,4.7,6.7,48,0.00,,,0.00,WUHU216HW,2013-06-03 16:48:00,
2013-06-03 12:49:00,83.5,61.7,29.72,NNW,338,6.0,6.7,48,0.00,,,0.00,WUHU216HW,2013-06-03 16:49:00,
2013-06-03 12:51:00,83.3,62.2,29.72,NNE,23,5.1,6.7,49,0.00,,,0.00,WUHU216HW,2013-06-03 16:51:00,
2013-06-03 12:52:00,83.3,61.6,29.72,NNW,338,4.7,6.7,48,0.00,,,0.00,WUHU216HW,2013-06-03 16:52:00,
2013-06-03 12:54:00,83.3,62.2,29.72,NE,45,1.3,6.7,49,0.00,,,0.00,WUHU216HW,2013-06-03 16:54:00,
2013-06-03 12:57:00,83.7,63.2,29.73,NW,315,3.4,6.0,50,0.00,,,0.00,WUHU216HW,2013-06-03 16:57:00,
2013-06-03 12:59:00,84.2,62.5,29.72,WNW,293,3.1,5.6,48,0.00,,,0.00,WUHU216HW,2013-06-03 16:59:00,
2013-06-03 13:00:00,84.4,62.0,29.72,NW,315,2.5,5.6,47,0.00,,,0.00,WUHU216HW,2013-06-03 17:00:00,
2013-06-03 13:03:00,84.6,62.2,29.72,North,0,4.5,5.6,47,0.00,,,0.00,WUHU216HW,2013-06-03 17:03:00,
2013-06-03 13:04:00,84.8,63.5,29.72,NW,315,6.0,6.0,49,0.00,,,0.00,WUHU216HW,2013-06-03 17:04:00,
2013-06-03 13:05:00,84.8,62.3,29.72,NW,315,4.3,6.0,47,0.00,,,0.00,WUHU216HW,2013-06-03 17:05:00,
2013-06-03 13:08:00,85.5,63.6,29.72,NW,315,3.6,6.0,48,0.00,,,0.00,WUHU216HW,2013-06-03 17:08:00,
2013-06-03 13:09:00,85.7,63.7,29.72,NW,315,2.7,6.0,48,0.00,,,0.00,WUHU216HW,2013-06-03 17:09:00,
2013-06-03 13:10:00,86.0,64.1,29.72,NNW,338,2.5,6.0,48,0.00,,,0.00,WUHU216HW,2013-06-03 17:10:00,
2013-06-03 13:11:00,86.4,63.8,29.72,WNW,293,4.7,6.0,47,0.00,,,0.00,WUHU216HW,2013-06-03 17:11:00,
2013-06-03 13:13:00,86.8,62.8,29.72,SW,225,0.9,6.0,45,0.00,,,0.00,WUHU216HW,2013-06-03 17:13:00,
2013-06-03 13:14:00,86.8,62.8,29.72,NNE,23,0.4,6.0,45,0.00,,,0.00,WUHU216HW,2013-06-03 17:14:00,
2013-06-03 13:15:00,86.8,62.8,29.71,WNW,293,1.1,6.0,45,0.00,,,0.00,WUHU216HW,2013-06-03 17:15:00,
2013-06-03 13:16:00,86.8,63.5,29.71,NNW,338,2.5,6.0,46,0.00,,,0.00,WUHU216HW,2013-06-03 17:16:00,
2013-06-03 13:17:00,86.8,62.8,29.71,NNE,23,2.2,4.7,45,0.00,,,0.00,WUHU216HW,2013-06-03 17:17:00,
2013-06-03 13:18:00,86.6,62.6,29.71,WNW,293,2.2,4.7,45,0.00,,,0.00,WUHU216HW,2013-06-03 17:18:00,
2013-06-03 13:19:00,86.6,63.3,29.71,NW,315,2.0,4.7,46,0.00,,,0.00,WUHU216HW,2013-06-03 17:19:00,
2013-06-03 13:21:00,86.4,63.8,29.71,NW,315,3.4,4.7,47,0.00,,,0.00,WUHU216HW,2013-06-03 17:21:00,
2013-06-03 13:23:00,85.7,62.5,29.71,NW,315,4.5,4.5,46,0.00,,,0.00,WUHU216HW,2013-06-03 17:23:00,
2013-06-03 13:24:00,85.3,61.6,29.71,NNE,23,3.1,4.5,45,0.00,,,0.00,WUHU216HW,2013-06-03 17:24:00,
2013-06-03 13:25:00,85.1,61.4,29.71,North,0,2.7,4.5,45,0.00,,,0.00,WUHU216HW,2013-06-03 17:25:00,
2013-06-03 13:26:00,85.1,61.4,29.71,North,0,2.7,4.5,45,0.00,,,0.00,WUHU216HW,2013-06-03 17:26:00,
2013-06-03 13:29:00,84.6,60.3,29.71,WNW,293,2.2,7.6,44,0.00,,,0.00,WUHU216HW,2013-06-03 17:29:00,
2013-06-03 13:31:00,84.4,60.8,29.71,NNW,338,4.0,7.6,45,0.00,,,0.00,WUHU216HW,2013-06-03 17:31:00,
2013-06-03 13:32:00,84.2,59.9,29.71,NW,315,6.3,7.6,44,0.00,,,0.00,WUHU216HW,2013-06-03 17:32:00,
2013-06-03 13:35:00,83.9,60.2,29.71,NNW,338,6.0,7.8,45,0.00,,,0.00,WUHU216HW,2013-06-03 17:35:00,
2013-06-03 13:36:00,83.7,59.4,29.71,NW,315,6.5,7.8,44,0.00,,,0.00,WUHU216HW,2013-06-03 17:36:00,
2013-06-03 13:37:00,83.7,59.4,29.71,NW,315,6.5,7.8,44,0.00,,,0.00,WUHU216HW,2013-06-03 17:37:00,
2013-06-03 13:42:00,83.2,60.8,29.71,NW,315,6.9,7.8,47,0.00,,,0.00,WUHU216HW,2013-06-03 17:42:00,
2013-06-03 13:43:00,83.5,61.7,29.71,NW,315,2.5,6.9,48,0.00,,,0.00,WUHU216HW,2013-06-03 17:43:00,
2013-06-03 13:47:00,84.2,61.2,29.71,NNW,338,4.0,6.9,46,0.00,,,0.00,WUHU216HW,2013-06-03 17:47:00,
2013-06-03 13:49:00,84.6,62.2,29.71,NNE,23,5.1,6.9,47,0.00,,,0.00,WUHU216HW,2013-06-03 17:49:00,
2013-06-03 13:50:00,84.6,61.6,29.71,NNW,338,2.9,6.9,46,0.00,,,0.00,WUHU216HW,2013-06-03 17:50:00,
2013-06-03 13:52:00,84.2,61.2,29.71,ENE,68,4.9,5.1,46,0.00,,,0.00,WUHU216HW,2013-06-03 17:52:00,
2013-06-03 13:53:00,84.2,61.2,29.71,ENE,68,4.9,5.1,46,0.00,,,0.00,WUHU216HW,2013-06-03 17:53:00,
2013-06-03 13:54:00,83.9,62.1,29.71,WNW,293,4.5,5.1,48,0.00,,,0.00,WUHU216HW,2013-06-03 17:54:00,
2013-06-03 13:55:00,83.5,61.7,29.71,NNW,338,2.7,5.1,48,0.00,,,0.00,WUHU216HW,2013-06-03 17:55:00,
2013-06-03 13:56:00,83.5,61.7,29.71,NNW,338,2.7,5.1,48,0.00,,,0.00,WUHU216HW,2013-06-03 17:56:00,
2013-06-03 13:58:00,83.2,61.4,29.71,WNW,293,2.7,5.1,48,0.00,,,0.00,WUHU216HW,2013-06-03 17:58:00,
2013-06-03 14:00:00,83.2,62.0,29.71,ESE,113,2.5,5.1,49,0.00,,,0.00,WUHU216HW,2013-06-03 18:00:00,
2013-06-03 14:01:00,83.2,62.0,29.71,NNE,23,3.6,5.1,49,0.00,,,0.00,WUHU216HW,2013-06-03 18:01:00,
2013-06-03 14:03:00,82.8,60.4,29.71,NNW,338,1.8,5.1,47,0.00,,,0.00,WUHU216HW,2013-06-03 18:03:00,
2013-06-03 14:05:00,82.4,60.7,29.71,North,0,1.1,3.6,48,0.00,,,0.00,WUHU216HW,2013-06-03 18:05:00,
2013-06-03 14:06:00,82.3,61.1,29.71,North,0,4.0,4.0,49,0.00,,,0.00,WUHU216HW,2013-06-03 18:06:00,
2013-06-03 14:08:00,82.4,61.9,29.71,WNW,293,1.8,4.0,50,0.00,,,0.00,WUHU216HW,2013-06-03 18:08:00,
2013-06-03 14:09:00,82.4,61.9,29.71,WNW,293,1.8,4.0,50,0.00,,,0.00,WUHU216HW,2013-06-03 18:09:00,
2013-06-03 14:10:00,83.0,62.5,29.71,NNE,23,4.0,5.4,50,0.00,,,0.00,WUHU216HW,2013-06-03 18:10:00,
2013-06-03 14:12:00,83.3,61.6,29.71,NNW,338,2.7,5.4,48,0.00,,,0.00,WUHU216HW,2013-06-03 18:12:00,
2013-06-03 14:14:00,83.7,61.9,29.71,WNW,293,1.3,5.4,48,0.00,,,0.00,WUHU216HW,2013-06-03 18:14:00,
2013-06-03 14:17:00,83.9,62.1,29.71,NW,315,2.7,6.0,48,0.00,,,0.00,WUHU216HW,2013-06-03 18:17:00,
2013-06-03 14:19:00,83.9,60.8,29.71,NNE,23,3.4,6.0,46,0.00,,,0.00,WUHU216HW,2013-06-03 18:19:00,
2013-06-03 14:20:00,83.9,60.8,29.71,NNE,23,3.4,6.0,46,0.00,,,0.00,WUHU216HW,2013-06-03 18:20:00,
2013-06-03 14:23:00,83.2,60.1,29.71,North,0,2.5,6.0,46,0.00,,,0.00,WUHU216HW,2013-06-03 18:23:00,
2013-06-03 14:24:00,82.8,61.0,29.71,SW,225,0.9,6.0,48,0.00,,,0.00,WUHU216HW,2013-06-03 18:24:00,
2013-06-03 14:25:00,82.8,61.0,29.71,SW,225,0.9,6.0,48,0.00,,,0.00,WUHU216HW,2013-06-03 18:25:00,
2013-06-03 14:28:00,82.4,61.3,29.71,NNW,338,1.8,5.4,49,0.00,,,0.00,WUHU216HW,2013-06-03 18:28:00,
2013-06-03 14:31:00,82.4,61.9,29.71,SSE,158,0.2,5.4,50,0.00,,,0.00,WUHU216HW,2013-06-03 18:31:00,
2013-06-03 14:32:00,82.4,61.9,29.71,NNW,338,2.7,5.4,50,0.00,,,0.00,WUHU216HW,2013-06-03 18:32:00,
2013-06-03 14:33:00,82.3,61.7,29.71,North,0,1.8,3.4,50,0.00,,,0.00,WUHU216HW,2013-06-03 18:33:00,
2013-06-03 14:35:00,82.4,61.9,29.71,NNE,23,1.8,3.4,50,0.00,,,0.00,WUHU216HW,2013-06-03 18:35:00,
2013-06-03 14:36:00,82.4,61.9,29.71,NNE,23,1.8,3.4,50,0.00,,,0.00,WUHU216HW,2013-06-03 18:36:00,
2013-06-03 14:37:00,82.6,62.1,29.71,ENE,68,1.8,2.7,50,0.00,,,0.00,WUHU216HW,2013-06-03 18:37:00,
2013-06-03 14:38:00,82.8,62.3,29.71,NE,45,1.3,2.7,50,0.00,,,0.00,WUHU216HW,2013-06-03 18:38:00,
2013-06-03 14:41:00,82.8,62.3,29.71,NW,315,5.1,5.1,50,0.00,,,0.00,WUHU216HW,2013-06-03 18:41:00,
2013-06-03 14:42:00,83.0,61.8,29.71,NW,315,2.9,5.1,49,0.00,,,0.00,WUHU216HW,2013-06-03 18:42:00,
2013-06-03 14:44:00,83.2,61.4,29.71,North,0,1.8,5.1,48,0.00,,,0.00,WUHU216HW,2013-06-03 18:44:00,
2013-06-03 14:45:00,83.0,61.8,29.71,NNE,23,2.5,5.1,49,0.00,,,0.00,WUHU216HW,2013-06-03 18:45:00,
2013-06-03 14:46:00,83.0,61.8,29.71,NNE,23,2.5,5.1,49,0.00,,,0.00,WUHU216HW,2013-06-03 18:46:00,
2013-06-03 14:47:00,82.8,61.0,29.71,NNE,23,1.8,5.1,48,0.00,,,0.00,WUHU216HW,2013-06-03 18:47:00,
2013-06-03 14:48:00,82.8,61.0,29.71,NNE,23,1.8,5.1,48,0.00,,,0.00,WUHU216HW,2013-06-03 18:48:00,
2013-06-03 14:49:00,82.8,61.0,29.71,NNE,23,1.8,5.1,48,0.00,,,0.00,WUHU216HW,2013-06-03 18:49:00,
2013-06-03 14:50:00,82.8,61.0,29.71,NNE,23,1.8,3.6,48,0.00,,,0.00,WUHU216HW,2013-06-03 18:50:00,
2013-06-03 14:51:00,82.8,61.0,29.71,NNE,23,1.8,3.6,48,0.00,,,0.00,WUHU216HW,2013-06-03 18:51:00,
2013-06-03 14:52:00,82.8,61.0,29.71,NNE,23,1.8,3.4,48,0.00,,,0.00,WUHU216HW,2013-06-03 18:52:00,
2013-06-03 14:54:00,82.8,61.0,29.71,NNE,23,1.8,3.4,48,0.00,,,0.00,WUHU216HW,2013-06-03 18:54:00,
2013-06-03 14:55:00,82.8,61.0,29.71,NNE,23,1.8,2.5,48,0.00,,,0.00,WUHU216HW,2013-06-03 18:55:00,
2013-06-03 15:00:00,82.6,61.5,29.70,NE,45,1.1,1.1,49,0.00,,,0.00,WUHU216HW,2013-06-03 19:00:00,
2013-06-03 15:01:00,82.8,61.7,29.70,NE,45,4.0,4.0,49,0.00,,,0.00,WUHU216HW,2013-06-03 19:01:00,
2013-06-03 15:02:00,82.8,61.7,29.70,NE,45,4.0,4.0,49,0.00,,,0.00,WUHU216HW,2013-06-03 19:02:00,
2013-06-03 15:06:00,83.2,62.6,29.70,WNW,293,0.7,4.0,50,0.00,,,0.00,WUHU216HW,2013-06-03 19:06:00,
2013-06-03 15:07:00,83.2,62.6,29.70,NNE,23,2.7,4.0,50,0.00,,,0.00,WUHU216HW,2013-06-03 19:07:00,
2013-06-03 15:08:00,83.3,62.2,29.71,North,0,2.9,4.0,49,0.00,,,0.00,WUHU216HW,2013-06-03 19:08:00,
2013-06-03 15:11:00,83.0,60.0,29.71,NW,315,5.4,5.4,46,0.00,,,0.00,WUHU216HW,2013-06-03 19:11:00,
2013-06-03 15:13:00,82.6,59.7,29.71,NE,45,2.5,5.4,46,0.00,,,0.00,WUHU216HW,2013-06-03 19:13:00,
2013-06-03 15:14:00,82.4,59.5,29.70,NNW,338,2.9,5.4,46,0.00,,,0.00,WUHU216HW,2013-06-03 19:14:00,
2013-06-03 15:15:00,82.1,59.8,29.71,NW,315,3.8,5.4,47,0.00,,,0.00,WUHU216HW,2013-06-03 19:15:00,
2013-06-03 15:16:00,82.1,60.4,29.70,North,0,0.4,5.4,48,0.00,,,0.00,WUHU216HW,2013-06-03 19:16:00,
2013-06-03 15:19:00,82.3,60.6,29.70,NNE,23,1.6,5.4,48,0.00,,,0.00,WUHU216HW,2013-06-03 19:19:00,
2013-06-03 15:20:00,82.3,60.6,29.71,NNE,23,2.0,5.4,48,0.00,,,0.00,WUHU216HW,2013-06-03 19:20:00,
2013-06-03 15:21:00,82.4,60.7,29.71,NNE,23,1.1,3.8,48,0.00,,,0.00,WUHU216HW,2013-06-03 19:21:00,
2013-06-03 15:25:00,83.0,61.8,29.71,NW,315,0.7,3.6,49,0.00,,,0.00,WUHU216HW,2013-06-03 19:25:00,
2013-06-03 15:26:00,83.0,61.8,29.71,NW,315,0.7,3.6,49,0.00,,,0.00,WUHU216HW,2013-06-03 19:26:00,
2013-06-03 15:27:00,83.2,61.4,29.71,NNW,338,0.4,3.6,48,0.00,,,0.00,WUHU216HW,2013-06-03 19:27:00,
2013-06-03 15:31:00,83.2,60.8,29.71,North,0,1.8,4.7,47,0.00,,,0.00,WUHU216HW,2013-06-03 19:31:00,
2013-06-03 15:32:00,83.2,61.4,29.70,NW,315,2.5,4.7,48,0.00,,,0.00,WUHU216HW,2013-06-03 19:32:00,
2013-06-03 15:33:00,83.2,60.8,29.71,North,0,4.0,4.7,47,0.00,,,0.00,WUHU216HW,2013-06-03 19:33:00,
2013-06-03 15:36:00,83.2,61.4,29.71,NNW,338,3.1,4.7,48,0.00,,,0.00,WUHU216HW,2013-06-03 19:36:00,
2013-06-03 15:37:00,83.2,61.4,29.71,NNW,338,3.1,4.7,48,0.00,,,0.00,WUHU216HW,2013-06-03 19:37:00,
2013-06-03 15:38:00,83.3,60.9,29.71,North,0,1.8,4.7,47,0.00,,,0.00,WUHU216HW,2013-06-03 19:38:00,
2013-06-03 15:40:00,83.9,61.5,29.70,WNW,293,1.3,4.7,47,0.00,,,0.00,WUHU216HW,2013-06-03 19:40:00,
2013-06-03 15:42:00,84.1,61.7,29.70,WNW,293,2.0,4.7,47,0.00,,,0.00,WUHU216HW,2013-06-03 19:42:00,
2013-06-03 15:43:00,84.4,62.0,29.70,WNW,293,0.4,4.3,47,0.00,,,0.00,WUHU216HW,2013-06-03 19:43:00,
2013-06-03 15:45:00,85.0,61.8,29.71,SSE,158,1.1,4.3,46,0.00,,,0.00,WUHU216HW,2013-06-03 19:45:00,
2013-06-03 15:47:00,84.6,60.3,29.70,SSW,203,1.8,4.3,44,0.00,,,0.00,WUHU216HW,2013-06-03 19:47:00,
2013-06-03 15:48:00,84.2,59.9,29.70,SSE,158,0.4,2.5,44,0.00,,,0.00,WUHU216HW,2013-06-03 19:48:00,
2013-06-03 15:49:00,84.2,59.9,29.70,SSE,158,0.4,2.5,44,0.00,,,0.00,WUHU216HW,2013-06-03 19:49:00,
2013-06-03 15:50:00,83.9,60.8,29.70,WNW,293,2.2,2.5,46,0.00,,,0.00,WUHU216HW,2013-06-03 19:50:00,
2013-06-03 15:53:00,83.5,61.1,29.70,NW,315,1.3,2.5,47,0.00,,,0.00,WUHU216HW,2013-06-03 19:53:00,
2013-06-03 15:54:00,83.3,60.9,29.70,NNE,23,2.5,2.5,47,0.00,,,0.00,WUHU216HW,2013-06-03 19:54:00,
2013-06-03 15:55:00,83.3,60.9,29.70,NNE,23,1.1,2.5,47,0.00,,,0.00,WUHU216HW,2013-06-03 19:55:00,
2013-06-03 15:57:00,83.3,60.9,29.70,NE,45,2.7,2.7,47,0.00,,,0.00,WUHU216HW,2013-06-03 19:57:00,
2013-06-03 15:58:00,83.3,60.3,29.70,NE,45,2.2,2.7,46,0.00,,,0.00,WUHU216HW,2013-06-03 19:58:00,
2013-06-03 15:59:00,83.2,60.8,29.70,NE,45,2.2,2.7,47,0.00,,,0.00,WUHU216HW,2013-06-03 19:59:00,
2013-06-03 16:00:00,82.8,59.9,29.71,North,0,4.0,4.0,46,0.00,,,0.00,WUHU216HW,2013-06-03 20:00:00,
2013-06-03 16:02:00,82.6,59.7,29.71,NNE,23,1.3,4.0,46,0.00,,,0.00,WUHU216HW,2013-06-03 20:02:00,
2013-06-03 16:04:00,82.4,60.7,29.70,ENE,68,0.9,4.0,48,0.00,,,0.00,WUHU216HW,2013-06-03 20:04:00,
2013-06-03 16:05:00,82.4,60.7,29.70,NW,315,2.5,4.0,48,0.00,,,0.00,WUHU216HW,2013-06-03 20:05:00,
2013-06-03 16:06:00,82.4,60.7,29.70,West,270,2.5,4.0,48,0.00,,,0.00,WUHU216HW,2013-06-03 20:06:00,
2013-06-03 16:09:00,82.8,60.4,29.70,West,270,3.6,4.0,47,0.00,,,0.00,WUHU216HW,2013-06-03 20:09:00,
2013-06-03 16:10:00,82.8,60.4,29.70,WNW,293,4.0,4.0,47,0.00,,,0.00,WUHU216HW,2013-06-03 20:10:00,
2013-06-03 16:12:00,82.8,60.4,29.70,WNW,293,4.0,4.0,47,0.00,,,0.00,WUHU216HW,2013-06-03 20:12:00,
2013-06-03 16:15:00,83.2,60.1,29.70,NNW,338,6.3,6.3,46,0.00,,,0.00,WUHU216HW,2013-06-03 20:15:00,
2013-06-03 16:16:00,83.2,60.1,29.70,NW,315,3.6,6.3,46,0.00,,,0.00,WUHU216HW,2013-06-03 20:16:00,
2013-06-03 16:17:00,83.0,60.0,29.70,NW,315,3.1,6.3,46,0.00,,,0.00,WUHU216HW,2013-06-03 20:17:00,
2013-06-03 16:18:00,83.0,60.0,29.70,NW,315,3.1,6.3,46,0.00,,,0.00,WUHU216HW,2013-06-03 20:18:00,
2013-06-03 16:21:00,82.8,59.9,29.70,NNW,338,8.9,8.9,46,0.00,,,0.00,WUHU216HW,2013-06-03 20:21:00,
2013-06-03 16:23:00,82.4,59.5,29.70,NW,315,4.5,8.9,46,0.00,,,0.00,WUHU216HW,2013-06-03 20:23:00,
2013-06-03 16:24:00,82.1,60.4,29.70,NNW,338,3.8,8.9,48,0.00,,,0.00,WUHU216HW,2013-06-03 20:24:00,
2013-06-03 16:26:00,81.5,61.1,29.70,NW,315,1.1,8.9,50,0.00,,,0.00,WUHU216HW,2013-06-03 20:26:00,
2013-06-03 16:28:00,80.8,61.0,29.70,North,0,8.5,8.9,51,0.00,,,0.00,WUHU216HW,2013-06-03 20:28:00,
2013-06-03 16:29:00,80.6,60.9,29.70,NNW,338,4.0,8.9,51,0.00,,,0.00,WUHU216HW,2013-06-03 20:29:00,
2013-06-03 16:30:00,80.6,60.9,29.70,NNW,338,4.0,8.9,51,0.00,,,0.00,WUHU216HW,2013-06-03 20:30:00,
2013-06-03 16:33:00,79.6,60.9,29.70,NW,315,3.6,8.5,53,0.00,,,0.00,WUHU216HW,2013-06-03 20:33:00,
2013-06-03 16:34:00,79.6,60.9,29.70,NW,315,3.6,8.5,53,0.00,,,0.00,WUHU216HW,2013-06-03 20:34:00,
2013-06-03 16:35:00,79.2,61.7,29.70,West,270,3.4,8.5,55,0.00,,,0.00,WUHU216HW,2013-06-03 20:35:00,
2013-06-03 16:39:00,79.0,60.9,29.70,NW,315,3.8,5.8,54,0.00,,,0.00,WUHU216HW,2013-06-03 20:39:00,
2013-06-03 16:40:00,79.0,60.9,29.70,North,0,3.4,6.3,54,0.00,,,0.00,WUHU216HW,2013-06-03 20:40:00,
2013-06-03 16:41:00,78.8,61.3,29.70,North,0,2.0,6.3,55,0.00,,,0.00,WUHU216HW,2013-06-03 20:41:00,
2013-06-03 16:42:00,78.8,60.8,29.70,NE,45,4.7,6.3,54,0.00,,,0.00,WUHU216HW,2013-06-03 20:42:00,
2013-06-03 16:44:00,78.8,61.3,29.70,NE,45,5.6,6.3,55,0.00,,,0.00,WUHU216HW,2013-06-03 20:44:00,
2013-06-03 16:45:00,78.8,61.3,29.70,NE,45,5.6,6.3,55,0.00,,,0.00,WUHU216HW,2013-06-03 20:45:00,
2013-06-03 16:46:00,78.8,60.8,29.70,ENE,68,2.9,6.3,54,0.00,,,0.00,WUHU216HW,2013-06-03 20:46:00,
2013-06-03 16:47:00,78.5,60.0,29.70,North,0,6.5,6.5,53,0.00,,,0.00,WUHU216HW,2013-06-03 20:47:00,
2013-06-03 16:49:00,78.1,60.1,29.70,SE,135,2.7,6.5,54,0.00,,,0.00,WUHU216HW,2013-06-03 20:49:00,
2013-06-03 16:52:00,77.8,59.8,29.71,ESE,113,2.5,6.5,54,0.00,,,0.00,WUHU216HW,2013-06-03 20:52:00,
2013-06-03 16:54:00,77.2,59.8,29.71,NW,315,1.8,6.5,55,0.00,,,0.00,WUHU216HW,2013-06-03 20:54:00,
2013-06-03 16:55:00,77.2,59.8,29.71,NW,315,1.8,6.5,55,0.00,,,0.00,WUHU216HW,2013-06-03 20:55:00,
2013-06-03 16:56:00,76.7,59.8,29.71,NNE,23,2.7,6.9,56,0.00,,,0.00,WUHU216HW,2013-06-03 20:56:00,
2013-06-03 16:57:00,76.7,59.8,29.71,North,0,2.5,6.9,56,0.00,,,0.00,WUHU216HW,2013-06-03 20:57:00,
2013-06-03 16:58:00,76.5,59.6,29.71,NNE,23,4.0,6.9,56,0.00,,,0.00,WUHU216HW,2013-06-03 20:58:00,
2013-06-03 17:00:00,76.1,59.3,29.71,North,0,2.5,6.9,56,0.00,,,0.00,WUHU216HW,2013-06-03 21:00:00,
2013-06-03 17:01:00,76.0,59.6,29.71,NE,45,4.0,6.9,57,0.00,,,0.00,WUHU216HW,2013-06-03 21:01:00,
2013-06-03 17:04:00,75.8,59.5,29.71,SSE,158,2.0,6.9,57,0.00,,,0.00,WUHU216HW,2013-06-03 21:04:00,
2013-06-03 17:05:00,75.6,59.8,29.72,NE,45,2.9,5.1,58,0.00,,,0.00,WUHU216HW,2013-06-03 21:05:00,
2013-06-03 17:09:00,75.2,59.9,29.72,NE,45,1.1,5.1,59,0.00,,,0.00,WUHU216HW,2013-06-03 21:09:00,
2013-06-03 17:10:00,75.2,59.9,29.71,West,270,3.6,5.1,59,0.00,,,0.00,WUHU216HW,2013-06-03 21:10:00,
2013-06-03 17:13:00,75.1,60.3,29.72,WNW,293,6.3,6.3,60,0.00,,,0.00,WUHU216HW,2013-06-03 21:13:00,
2013-06-03 17:14:00,74.9,60.6,29.72,NNE,23,5.4,6.3,61,0.00,,,0.00,WUHU216HW,2013-06-03 21:14:00,
2013-06-03 17:15:00,74.9,60.6,29.72,North,0,2.2,6.3,61,0.00,,,0.00,WUHU216HW,2013-06-03 21:15:00,
2013-06-03 17:16:00,74.7,60.4,29.72,ENE,68,4.7,6.3,61,0.00,,,0.00,WUHU216HW,2013-06-03 21:16:00,
2013-06-03 17:17:00,74.7,60.4,29.72,ENE,68,4.7,6.3,61,0.00,,,0.00,WUHU216HW,2013-06-03 21:17:00,
2013-06-03 17:19:00,74.3,60.5,29.72,SE,135,1.6,6.3,62,0.00,,,0.00,WUHU216HW,2013-06-03 21:19:00,
2013-06-03 17:20:00,74.0,60.1,29.71,North,0,2.5,6.3,62,0.00,,,0.00,WUHU216HW,2013-06-03 21:20:00,
2013-06-03 17:22:00,73.8,60.4,29.72,East,90,6.7,6.7,63,0.00,,,0.00,WUHU216HW,2013-06-03 21:22:00,
2013-06-03 17:24:00,73.6,60.2,29.72,ENE,68,1.8,6.7,63,0.00,,,0.00,WUHU216HW,2013-06-03 21:24:00,
2013-06-03 17:26:00,73.6,60.7,29.72,ESE,113,1.3,6.7,64,0.00,,,0.00,WUHU216HW,2013-06-03 21:26:00,
2013-06-03 17:27:00,73.8,60.4,29.72,West,270,3.1,6.7,63,0.00,,,0.00,WUHU216HW,2013-06-03 21:27:00,
2013-06-03 17:28:00,73.8,60.9,29.72,East,90,1.1,6.7,64,0.00,,,0.00,WUHU216HW,2013-06-03 21:28:00,
2013-06-03 17:30:00,73.8,60.4,29.72,North,0,5.1,6.7,63,0.00,,,0.00,WUHU216HW,2013-06-03 21:30:00,
2013-06-03 17:31:00,73.6,60.2,29.72,East,90,2.5,6.7,63,0.00,,,0.00,WUHU216HW,2013-06-03 21:31:00,
2013-06-03 17:32:00,73.6,60.7,29.72,North,0,1.8,5.1,64,0.00,,,0.00,WUHU216HW,2013-06-03 21:32:00,
2013-06-03 17:33:00,73.8,60.4,29.72,NNW,338,1.1,5.1,63,0.00,,,0.00,WUHU216HW,2013-06-03 21:33:00,
2013-06-03 17:34:00,73.6,60.2,29.72,North,0,1.6,5.1,63,0.00,,,0.00,WUHU216HW,2013-06-03 21:34:00,
2013-06-03 17:36:00,73.8,60.9,29.72,North,0,2.2,5.1,64,0.00,,,0.00,WUHU216HW,2013-06-03 21:36:00,
2013-06-03 17:37:00,74.2,61.2,29.72,North,0,1.8,5.1,64,0.00,,,0.00,WUHU216HW,2013-06-03 21:37:00,
2013-06-03 17:38:00,74.2,61.2,29.72,NNW,338,3.1,5.1,64,0.00,,,0.00,WUHU216HW,2013-06-03 21:38:00,
2013-06-03 17:39:00,74.2,61.2,29.72,NW,315,2.5,5.1,64,0.00,,,0.00,WUHU216HW,2013-06-03 21:39:00,
2013-06-03 17:41:00,74.5,61.1,29.72,NW,315,4.7,4.7,63,0.00,,,0.00,WUHU216HW,2013-06-03 21:41:00,
2013-06-03 17:42:00,74.7,60.9,29.72,NNE,23,2.7,4.7,62,0.00,,,0.00,WUHU216HW,2013-06-03 21:42:00,
2013-06-03 17:43:00,74.9,61.0,29.72,NNE,23,4.0,4.7,62,0.00,,,0.00,WUHU216HW,2013-06-03 21:43:00,
2013-06-03 17:44:00,75.1,61.2,29.72,NNW,338,2.9,4.7,62,0.00,,,0.00,WUHU216HW,2013-06-03 21:44:00,
2013-06-03 17:45:00,75.1,61.2,29.72,NNW,338,2.9,4.7,62,0.00,,,0.00,WUHU216HW,2013-06-03 21:45:00,
2013-06-03 17:47:00,75.4,60.7,29.72,NE,45,3.6,4.7,60,0.00,,,0.00,WUHU216HW,2013-06-03 21:47:00,
2013-06-03 17:48:00,75.4,60.7,29.72,NE,45,3.6,4.7,60,0.00,,,0.00,WUHU216HW,2013-06-03 21:48:00,
2013-06-03 17:49:00,75.6,61.2,29.72,NNE,23,1.3,4.7,61,0.00,,,0.00,WUHU216HW,2013-06-03 21:49:00,
2013-06-03 17:50:00,75.6,60.9,29.72,North,0,3.6,4.0,60,0.00,,,0.00,WUHU216HW,2013-06-03 21:50:00,
2013-06-03 17:52:00,75.6,60.9,29.72,NNE,23,4.7,4.7,60,0.00,,,0.00,WUHU216HW,2013-06-03 21:52:00,
2013-06-03 17:53:00,75.4,60.1,29.72,NW,315,4.3,4.7,59,0.00,,,0.00,WUHU216HW,2013-06-03 21:53:00,
2013-06-03 17:54:00,75.4,60.1,29.72,North,0,7.6,7.6,59,0.00,,,0.00,WUHU216HW,2013-06-03 21:54:00,
2013-06-03 17:57:00,75.1,59.8,29.72,WNW,293,1.8,7.6,59,0.00,,,0.00,WUHU216HW,2013-06-03 21:57:00,
2013-06-03 17:58:00,75.1,59.8,29.72,WNW,293,1.8,7.6,59,0.00,,,0.00,WUHU216HW,2013-06-03 21:58:00,
2013-06-03 17:59:00,74.7,59.9,29.72,NNE,23,5.1,7.6,60,0.00,,,0.00,WUHU216HW,2013-06-03 21:59:00,
2013-06-03 18:00:00,74.5,59.8,29.72,NNE,23,1.8,7.6,60,0.00,,,0.00,WUHU216HW,2013-06-03 22:00:00,
2013-06-03 18:02:00,74.3,59.6,29.72,NNW,338,1.3,7.6,60,0.00,,,0.00,WUHU216HW,2013-06-03 22:02:00,
2013-06-03 18:04:00,74.2,59.9,29.72,North,0,5.4,7.6,61,0.00,,,0.00,WUHU216HW,2013-06-03 22:04:00,
2013-06-03 18:05:00,74.2,59.9,29.73,NNE,23,2.9,6.9,61,0.00,,,0.00,WUHU216HW,2013-06-03 22:05:00,
2013-06-03 18:07:00,74.2,59.9,29.73,North,0,1.1,5.4,61,0.00,,,0.00,WUHU216HW,2013-06-03 22:07:00,
2013-06-03 18:08:00,74.2,59.9,29.73,North,0,3.4,5.4,61,0.00,,,0.00,WUHU216HW,2013-06-03 22:08:00,
2013-06-03 18:09:00,74.2,59.9,29.73,NE,45,1.3,5.4,61,0.00,,,0.00,WUHU216HW,2013-06-03 22:09:00,
2013-06-03 18:11:00,74.2,60.3,29.73,ENE,68,1.1,5.4,62,0.00,,,0.00,WUHU216HW,2013-06-03 22:11:00,
2013-06-03 18:13:00,74.2,60.3,29.73,NE,45,2.9,5.4,62,0.00,,,0.00,WUHU216HW,2013-06-03 22:13:00,
2013-06-03 18:14:00,74.2,60.3,29.73,North,0,2.5,3.6,62,0.00,,,0.00,WUHU216HW,2013-06-03 22:14:00,
2013-06-03 18:16:00,74.2,60.3,29.73,North,0,0.7,3.6,62,0.00,,,0.00,WUHU216HW,2013-06-03 22:16:00,
2013-06-03 18:17:00,74.3,60.0,29.73,NW,315,0.4,3.6,61,0.00,,,0.00,WUHU216HW,2013-06-03 22:17:00,
2013-06-03 18:19:00,74.3,60.5,29.73,NW,315,4.5,4.5,62,0.00,,,0.00,WUHU216HW,2013-06-03 22:19:00,
2013-06-03 18:20:00,74.3,60.5,29.73,East,90,1.8,4.5,62,0.00,,,0.00,WUHU216HW,2013-06-03 22:20:00,
2013-06-03 18:22:00,74.3,60.5,29.73,East,90,1.1,4.5,62,0.00,,,0.00,WUHU216HW,2013-06-03 22:22:00,
2013-06-03 18:23:00,74.3,60.5,29.73,NE,45,2.2,4.5,62,0.00,,,0.00,WUHU216HW,2013-06-03 22:23:00,
2013-06-03 18:24:00,74.2,60.3,29.73,NE,45,2.2,4.5,62,0.00,,,0.00,WUHU216HW,2013-06-03 22:24:00,
2013-06-03 18:26:00,74.2,60.3,29.73,NNW,338,5.4,5.4,62,0.00,,,0.00,WUHU216HW,2013-06-03 22:26:00,
2013-06-03 18:27:00,74.2,60.3,29.73,NNW,338,5.4,5.4,62,0.00,,,0.00,WUHU216HW,2013-06-03 22:27:00,
2013-06-03 18:28:00,74.2,59.9,29.73,NNW,338,2.5,5.4,61,0.00,,,0.00,WUHU216HW,2013-06-03 22:28:00,
2013-06-03 18:29:00,74.0,59.7,29.73,NW,315,2.0,5.4,61,0.00,,,0.00,WUHU216HW,2013-06-03 22:29:00,
2013-06-03 18:32:00,74.2,60.3,29.73,NE,45,1.3,5.4,62,0.00,,,0.00,WUHU216HW,2013-06-03 22:32:00,
2013-06-03 18:33:00,74.2,60.3,29.73,WNW,293,2.0,5.4,62,0.00,,,0.00,WUHU216HW,2013-06-03 22:33:00,
2013-06-03 18:34:00,74.2,60.3,29.73,NNE,23,2.5,5.4,62,0.00,,,0.00,WUHU216HW,2013-06-03 22:34:00,
2013-06-03 18:35:00,74.2,60.3,29.73,North,0,2.5,5.4,62,0.00,,,0.00,WUHU216HW,2013-06-03 22:35:00,
2013-06-03 18:38:00,74.2,58.9,29.73,SSW,203,0.7,4.5,59,0.00,,,0.00,WUHU216HW,2013-06-03 22:38:00,
2013-06-03 18:39:00,74.2,58.9,29.73,North,0,1.6,4.5,59,0.00,,,0.00,WUHU216HW,2013-06-03 22:39:00,
2013-06-03 18:40:00,74.2,58.9,29.73,North,0,1.6,4.5,59,0.00,,,0.00,WUHU216HW,2013-06-03 22:40:00,
2013-06-03 18:42:00,74.0,59.7,29.73,South,180,1.6,4.5,61,0.00,,,0.00,WUHU216HW,2013-06-03 22:42:00,
2013-06-03 18:44:00,73.8,59.5,29.73,NE,45,2.2,4.5,61,0.00,,,0.00,WUHU216HW,2013-06-03 22:44:00,
2013-06-03 18:45:00,73.6,58.9,29.74,NE,45,2.0,4.5,60,0.00,,,0.00,WUHU216HW,2013-06-03 22:45:00,
2013-06-03 18:49:00,73.3,59.0,29.74,NNE,23,2.0,2.2,61,0.00,,,0.00,WUHU216HW,2013-06-03 22:49:00,
2013-06-03 18:50:00,73.3,59.0,29.74,NNE,23,1.8,2.2,61,0.00,,,0.00,WUHU216HW,2013-06-03 22:50:00,
2013-06-03 18:51:00,73.3,59.0,29.74,NNE,23,1.8,2.2,61,0.00,,,0.00,WUHU216HW,2013-06-03 22:51:00,
2013-06-03 18:54:00,73.1,58.8,29.74,ENE,68,1.6,2.0,61,0.00,,,0.00,WUHU216HW,2013-06-03 22:54:00,
2013-06-03 18:55:00,73.1,58.8,29.74,East,90,0.9,2.0,61,0.00,,,0.00,WUHU216HW,2013-06-03 22:55:00,
2013-06-03 18:57:00,73.1,59.2,29.74,East,90,1.8,2.0,62,0.00,,,0.00,WUHU216HW,2013-06-03 22:57:00,
2013-06-03 18:59:00,73.1,59.2,29.74,ESE,113,1.8,2.0,62,0.00,,,0.00,WUHU216HW,2013-06-03 22:59:00,
2013-06-03 19:01:00,73.1,59.2,29.74,East,90,0.4,2.0,62,0.00,,,0.00,WUHU216HW,2013-06-03 23:01:00,
2013-06-03 19:02:00,73.1,59.2,29.74,SE,135,0.7,2.0,62,0.00,,,0.00,WUHU216HW,2013-06-03 23:02:00,
2013-06-03 19:03:00,72.9,59.0,29.74,ESE,113,1.6,2.0,62,0.00,,,0.00,WUHU216HW,2013-06-03 23:03:00,
2013-06-03 19:04:00,72.9,59.0,29.75,NE,45,1.6,2.0,62,0.00,,,0.00,WUHU216HW,2013-06-03 23:04:00,
2013-06-03 19:06:00,72.7,58.5,29.75,ENE,68,1.8,2.0,61,0.00,,,0.00,WUHU216HW,2013-06-03 23:06:00,
2013-06-03 19:07:00,72.7,58.5,29.75,NE,45,0.2,1.8,61,0.00,,,0.00,WUHU216HW,2013-06-03 23:07:00,
2013-06-03 19:08:00,72.7,58.5,29.75,NE,45,0.2,1.8,61,0.00,,,0.00,WUHU216HW,2013-06-03 23:08:00,
2013-06-03 19:10:00,72.5,58.3,29.75,NNW,338,3.4,3.4,61,0.00,,,0.00,WUHU216HW,2013-06-03 23:10:00,
2013-06-03 19:11:00,72.5,58.3,29.75,NE,45,3.8,3.8,61,0.00,,,0.00,WUHU216HW,2013-06-03 23:11:00,
2013-06-03 19:13:00,72.5,58.3,29.75,ENE,68,1.3,3.8,61,0.00,,,0.00,WUHU216HW,2013-06-03 23:13:00,
2013-06-03 19:14:00,72.4,58.1,29.75,NE,45,2.7,3.8,61,0.00,,,0.00,WUHU216HW,2013-06-03 23:14:00,
2013-06-03 19:15:00,72.4,58.1,29.75,NE,45,2.7,3.8,61,0.00,,,0.00,WUHU216HW,2013-06-03 23:15:00,
2013-06-03 19:16:00,72.4,58.6,29.75,NNW,338,1.1,3.8,62,0.00,,,0.00,WUHU216HW,2013-06-03 23:16:00,
2013-06-03 19:18:00,72.2,58.4,29.75,NE,45,1.3,3.8,62,0.00,,,0.00,WUHU216HW,2013-06-03 23:18:00,
2013-06-03 19:19:00,72.2,58.4,29.75,NNE,23,1.3,3.8,62,0.00,,,0.00,WUHU216HW,2013-06-03 23:19:00,
2013-06-03 19:20:00,72.2,58.4,29.75,ENE,68,1.6,3.8,62,0.00,,,0.00,WUHU216HW,2013-06-03 23:20:00,
2013-06-03 19:23:00,72.2,58.9,29.75,NE,45,0.9,2.7,63,0.00,,,0.00,WUHU216HW,2013-06-03 23:23:00,
2013-06-03 19:24:00,72.2,58.4,29.75,NNE,23,3.1,3.1,62,0.00,,,0.00,WUHU216HW,2013-06-03 23:24:00,
2013-06-03 19:25:00,72.4,58.6,29.75,ENE,68,0.9,3.1,62,0.00,,,0.00,WUHU216HW,2013-06-03 23:25:00,
2013-06-03 19:26:00,72.4,58.6,29.75,ENE,68,0.9,3.1,62,0.00,,,0.00,WUHU216HW,2013-06-03 23:26:00,
2013-06-03 19:28:00,72.4,58.6,29.75,SE,135,0.4,3.1,62,0.00,,,0.00,WUHU216HW,2013-06-03 23:28:00,
2013-06-03 19:29:00,72.4,58.6,29.75,SE,135,0.4,3.1,62,0.00,,,0.00,WUHU216HW,2013-06-03 23:29:00,
2013-06-03 19:30:00,72.2,58.9,29.75,North,0,1.1,3.1,63,0.00,,,0.00,WUHU216HW,2013-06-03 23:30:00,
2013-06-03 19:31:00,72.0,58.7,29.75,ENE,68,0.4,3.1,63,0.00,,,0.00,WUHU216HW,2013-06-03 23:31:00,
2013-06-03 19:32:00,72.0,58.7,29.75,NNE,23,0.4,3.1,63,0.00,,,0.00,WUHU216HW,2013-06-03 23:32:00,
2013-06-03 19:33:00,72.0,58.7,29.75,ESE,113,1.3,3.1,63,0.00,,,0.00,WUHU216HW,2013-06-03 23:33:00,
2013-06-03 19:35:00,71.8,58.5,29.75,NE,45,1.1,2.0,63,0.00,,,0.00,WUHU216HW,2013-06-03 23:35:00,
2013-06-03 19:37:00,71.8,58.5,29.75,NE,45,2.2,2.2,63,0.00,,,0.00,WUHU216HW,2013-06-03 23:37:00,
2013-06-03 19:38:00,71.6,58.3,29.75,SE,135,0.0,2.2,63,0.00,,,0.00,WUHU216HW,2013-06-03 23:38:00,
2013-06-03 19:42:00,71.5,58.6,29.75,East,90,0.4,2.2,64,0.00,,,0.00,WUHU216HW,2013-06-03 23:42:00,
2013-06-03 19:43:00,71.5,58.6,29.75,East,90,0.4,2.2,64,0.00,,,0.00,WUHU216HW,2013-06-03 23:43:00,
2013-06-03 19:45:00,71.5,58.6,29.75,North,0,0.2,2.2,64,0.00,,,0.00,WUHU216HW,2013-06-03 23:45:00,
2013-06-03 19:48:00,71.3,58.1,29.75,North,0,1.1,1.8,63,0.00,,,0.00,WUHU216HW,2013-06-03 23:48:00,
2013-06-03 19:49:00,71.3,58.1,29.75,NE,45,0.4,2.0,63,0.00,,,0.00,WUHU216HW,2013-06-03 23:49:00,
2013-06-03 19:50:00,71.1,57.9,29.75,NNE,23,2.9,2.9,63,0.00,,,0.00,WUHU216HW,2013-06-03 23:50:00,
2013-06-03 19:53:00,71.1,57.9,29.75,North,0,0.7,2.9,63,0.00,,,0.00,WUHU216HW,2013-06-03 23:53:00,
2013-06-03 19:54:00,71.3,58.1,29.75,NNE,23,3.6,3.6,63,0.00,,,0.00,WUHU216HW,2013-06-03 23:54:00,
2013-06-03 19:55:00,71.3,58.1,29.75,North,0,1.6,3.6,63,0.00,,,0.00,WUHU216HW,2013-06-03 23:55:00,
2013-06-03 19:56:00,71.3,58.1,29.75,NNW,338,0.4,3.6,63,0.00,,,0.00,WUHU216HW,2013-06-03 23:56:00,
2013-06-03 19:58:00,71.3,58.1,29.75,NNE,23,1.6,3.6,63,0.00,,,0.00,WUHU216HW,2013-06-03 23:58:00,
2013-06-03 20:00:00,71.1,57.9,29.75,North,0,0.2,3.6,63,0.00,,,0.00,WUHU216HW,2013-06-04 00:00:00,
2013-06-03 20:01:00,71.1,57.9,29.75,East,90,0.4,3.6,63,0.00,,,0.00,WUHU216HW,2013-06-04 00:01:00,
2013-06-03 20:02:00,70.9,57.7,29.75,ESE,113,0.2,3.6,63,0.00,,,0.00,WUHU216HW,2013-06-04 00:02:00,
2013-06-03 20:03:00,70.9,57.7,29.75,SE,135,0.0,3.6,63,0.00,,,0.00,WUHU216HW,2013-06-04 00:03:00,
2013-06-03 20:05:00,70.9,57.7,29.76,NNW,338,1.1,2.7,63,0.00,,,0.00,WUHU216HW,2013-06-04 00:05:00,
2013-06-03 20:07:00,70.7,57.5,29.76,North,0,0.0,2.7,63,0.00,,,0.00,WUHU216HW,2013-06-04 00:07:00,
2013-06-03 20:08:00,70.7,57.5,29.76,NNW,338,1.1,2.7,63,0.00,,,0.00,WUHU216HW,2013-06-04 00:08:00,
2013-06-03 20:09:00,70.7,57.5,29.76,North,0,0.7,2.7,63,0.00,,,0.00,WUHU216HW,2013-06-04 00:09:00,
2013-06-03 20:10:00,70.7,57.5,29.75,North,0,0.9,2.7,63,0.00,,,0.00,WUHU216HW,2013-06-04 00:10:00,
2013-06-03 20:13:00,70.6,57.8,29.76,North,0,1.1,2.7,64,0.00,,,0.00,WUHU216HW,2013-06-04 00:13:00,
2013-06-03 20:14:00,70.6,57.8,29.76,North,0,0.2,1.1,64,0.00,,,0.00,WUHU216HW,2013-06-04 00:14:00,
2013-06-03 20:15:00,70.6,57.8,29.76,North,0,0.2,1.1,64,0.00,,,0.00,WUHU216HW,2013-06-04 00:15:00,
2013-06-03 20:19:00,70.4,57.6,29.76,NNW,338,0.2,1.1,64,0.00,,,0.00,WUHU216HW,2013-06-04 00:19:00,
2013-06-03 20:20:00,70.4,57.6,29.76,NNW,338,0.0,1.1,64,0.00,,,0.00,WUHU216HW,2013-06-04 00:20:00,
2013-06-03 20:22:00,70.2,57.4,29.76,North,0,0.0,1.1,64,0.00,,,0.00,WUHU216HW,2013-06-04 00:22:00,
2013-06-03 20:25:00,70.2,57.4,29.76,NNW,338,1.3,2.0,64,0.00,,,0.00,WUHU216HW,2013-06-04 00:25:00,
2013-06-03 20:26:00,70.0,57.2,29.76,NNW,338,1.1,2.0,64,0.00,,,0.00,WUHU216HW,2013-06-04 00:26:00,
2013-06-03 20:27:00,70.0,57.2,29.76,NNW,338,1.1,2.0,64,0.00,,,0.00,WUHU216HW,2013-06-04 00:27:00,
2013-06-03 20:30:00,70.0,57.2,29.76,NW,315,1.3,2.0,64,0.00,,,0.00,WUHU216HW,2013-06-04 00:30:00,
2013-06-03 20:32:00,70.0,57.2,29.76,NW,315,1.3,2.0,64,0.00,,,0.00,WUHU216HW,2013-06-04 00:32:00,
2013-06-03 20:33:00,70.0,57.2,29.76,NW,315,1.1,1.8,64,0.00,,,0.00,WUHU216HW,2013-06-04 00:33:00,
2013-06-03 20:35:00,70.0,57.7,29.76,NW,315,0.2,1.8,65,0.00,,,0.00,WUHU216HW,2013-06-04 00:35:00,
2013-06-03 20:37:00,70.0,57.7,29.76,NNW,338,0.0,1.8,65,0.00,,,0.00,WUHU216HW,2013-06-04 00:37:00,
2013-06-03 20:38:00,70.0,57.7,29.76,NNW,338,0.4,1.8,65,0.00,,,0.00,WUHU216HW,2013-06-04 00:38:00,
2013-06-03 20:39:00,70.0,57.7,29.76,NNW,338,0.4,1.8,65,0.00,,,0.00,WUHU216HW,2013-06-04 00:39:00,
2013-06-03 20:41:00,69.7,57.3,29.77,NNW,338,0.0,1.3,65,0.00,,,0.00,WUHU216HW,2013-06-04 00:41:00,
2013-06-03 20:42:00,69.7,57.3,29.77,NW,315,1.1,1.1,65,0.00,,,0.00,WUHU216HW,2013-06-04 00:42:00,
2013-06-03 20:44:00,69.5,57.2,29.77,NW,315,0.7,1.3,65,0.00,,,0.00,WUHU216HW,2013-06-04 00:44:00,
2013-06-03 20:45:00,69.5,57.2,29.77,NW,315,0.9,1.3,65,0.00,,,0.00,WUHU216HW,2013-06-04 00:45:00,
2013-06-03 20:48:00,69.3,57.0,29.77,NW,315,1.1,1.3,65,0.00,,,0.00,WUHU216HW,2013-06-04 00:48:00,
2013-06-03 20:49:00,69.1,56.8,29.77,NW,315,0.9,1.3,65,0.00,,,0.00,WUHU216HW,2013-06-04 00:49:00,
2013-06-03 20:50:00,69.1,56.8,29.77,NW,315,0.9,1.3,65,0.00,,,0.00,WUHU216HW,2013-06-04 00:50:00,
2013-06-03 20:52:00,68.9,57.1,29.77,NW,315,0.0,1.3,66,0.00,,,0.00,WUHU216HW,2013-06-04 00:52:00,
2013-06-03 20:55:00,68.8,56.9,29.77,NW,315,0.0,1.1,66,0.00,,,0.00,WUHU216HW,2013-06-04 00:55:00,
2013-06-03 20:56:00,68.8,56.9,29.77,NW,315,0.0,1.1,66,0.00,,,0.00,WUHU216HW,2013-06-04 00:56:00,
2013-06-03 20:59:00,68.6,56.7,29.77,NW,315,1.3,1.3,66,0.00,,,0.00,WUHU216HW,2013-06-04 00:59:00,
2013-06-03 21:00:00,68.4,57.0,29.77,NW,315,1.8,1.8,67,0.00,,,0.00,WUHU216HW,2013-06-04 01:00:00,
2013-06-03 21:01:00,68.4,57.0,29.77,NW,315,1.3,1.8,67,0.00,,,0.00,WUHU216HW,2013-06-04 01:01:00,
2013-06-03 21:04:00,68.4,57.0,29.77,NW,315,2.0,2.0,67,0.00,,,0.00,WUHU216HW,2013-06-04 01:04:00,
2013-06-03 21:06:00,68.2,56.8,29.77,NW,315,2.2,2.2,67,0.00,,,0.00,WUHU216HW,2013-06-04 01:06:00,
2013-06-03 21:07:00,68.2,56.8,29.77,NW,315,2.2,2.2,67,0.00,,,0.00,WUHU216HW,2013-06-04 01:07:00,
2013-06-03 21:09:00,68.2,57.2,29.77,NW,315,2.0,2.2,68,0.00,,,0.00,WUHU216HW,2013-06-04 01:09:00,
2013-06-03 21:11:00,68.0,57.1,29.77,NNW,338,1.3,2.2,68,0.00,,,0.00,WUHU216HW,2013-06-04 01:11:00,
2013-06-03 21:12:00,68.0,57.1,29.77,NNW,338,0.4,2.2,68,0.00,,,0.00,WUHU216HW,2013-06-04 01:12:00,
2013-06-03 21:13:00,68.0,57.1,29.77,NNW,338,0.0,2.2,68,0.00,,,0.00,WUHU216HW,2013-06-04 01:13:00,
2013-06-03 21:14:00,68.0,57.1,29.77,NNW,338,0.0,2.2,68,0.00,,,0.00,WUHU216HW,2013-06-04 01:14:00,
2013-06-03 21:15:00,68.0,57.1,29.77,NNW,338,0.0,2.2,68,0.00,,,0.00,WUHU216HW,2013-06-04 01:15:00,
2013-06-03 21:17:00,67.9,56.9,29.77,North,0,0.0,2.0,68,0.00,,,0.00,WUHU216HW,2013-06-04 01:17:00,
2013-06-03 21:18:00,67.7,56.7,29.77,NNW,338,0.7,2.0,68,0.00,,,0.00,WUHU216HW,2013-06-04 01:18:00,
2013-06-03 21:19:00,67.7,56.7,29.77,NNW,338,0.4,2.0,68,0.00,,,0.00,WUHU216HW,2013-06-04 01:19:00,
2013-06-03 21:20:00,67.7,56.7,29.77,NNW,338,0.0,1.6,68,0.00,,,0.00,WUHU216HW,2013-06-04 01:20:00,
2013-06-03 21:23:00,67.3,56.8,29.77,NNW,338,0.2,1.1,69,0.00,,,0.00,WUHU216HW,2013-06-04 01:23:00,
2013-06-03 21:24:00,67.3,56.8,29.78,NW,315,0.7,1.1,69,0.00,,,0.00,WUHU216HW,2013-06-04 01:24:00,
2013-06-03 21:25:00,67.3,56.8,29.78,NNW,338,0.9,1.1,69,0.00,,,0.00,WUHU216HW,2013-06-04 01:25:00,
2013-06-03 21:29:00,67.0,56.9,29.78,NNW,338,1.8,1.8,70,0.00,,,0.00,WUHU216HW,2013-06-04 01:29:00,
2013-06-03 21:30:00,67.0,56.9,29.78,NW,315,1.6,1.8,70,0.00,,,0.00,WUHU216HW,2013-06-04 01:30:00,
2013-06-03 21:31:00,66.8,56.7,29.78,NNW,338,2.0,2.0,70,0.00,,,0.00,WUHU216HW,2013-06-04 01:31:00,
2013-06-03 21:34:00,66.8,56.7,29.78,NW,315,2.7,2.7,70,0.00,,,0.00,WUHU216HW,2013-06-04 01:34:00,
2013-06-03 21:35:00,66.8,56.7,29.78,NW,315,2.7,2.7,70,0.00,,,0.00,WUHU216HW,2013-06-04 01:35:00,
2013-06-03 21:36:00,66.8,56.7,29.78,NW,315,3.4,3.4,70,0.00,,,0.00,WUHU216HW,2013-06-04 01:36:00,
2013-06-03 21:38:00,66.8,56.7,29.78,NNW,338,2.2,3.4,70,0.00,,,0.00,WUHU216HW,2013-06-04 01:38:00,
2013-06-03 21:40:00,66.8,56.3,29.78,NNW,338,2.0,3.4,69,0.00,,,0.00,WUHU216HW,2013-06-04 01:40:00,
2013-06-03 21:41:00,66.8,56.3,29.78,WSW,248,0.4,3.4,69,0.00,,,0.00,WUHU216HW,2013-06-04 01:41:00,
2013-06-03 21:43:00,67.0,56.9,29.79,NNE,23,0.2,3.4,70,0.00,,,0.00,WUHU216HW,2013-06-04 01:43:00,
2013-06-03 21:45:00,67.0,56.9,29.79,NNE,23,0.4,3.4,70,0.00,,,0.00,WUHU216HW,2013-06-04 01:45:00,
2013-06-03 21:47:00,66.8,56.7,29.79,NW,315,0.9,2.2,70,0.00,,,0.00,WUHU216HW,2013-06-04 01:47:00,
2013-06-03 21:49:00,66.6,56.5,29.79,NW,315,1.6,1.6,70,0.00,,,0.00,WUHU216HW,2013-06-04 01:49:00,
2013-06-03 21:50:00,66.6,56.5,29.79,NW,315,1.6,1.6,70,0.00,,,0.00,WUHU216HW,2013-06-04 01:50:00,
2013-06-03 21:51:00,66.6,56.5,29.80,North,0,2.7,2.7,70,0.00,,,0.00,WUHU216HW,2013-06-04 01:51:00,
2013-06-03 21:53:00,66.4,56.7,29.80,North,0,0.0,2.7,71,0.00,,,0.00,WUHU216HW,2013-06-04 01:53:00,
2013-06-03 21:55:00,66.4,56.7,29.80,NE,45,1.8,2.7,71,0.00,,,0.00,WUHU216HW,2013-06-04 01:55:00,
2013-06-03 21:56:00,66.4,56.7,29.80,North,0,0.0,2.7,71,0.00,,,0.00,WUHU216HW,2013-06-04 01:56:00,
2013-06-03 21:59:00,66.2,56.5,29.80,ENE,68,1.3,3.1,71,0.00,,,0.00,WUHU216HW,2013-06-04 01:59:00,
2013-06-03 22:01:00,66.2,56.5,29.80,NNW,338,0.4,3.1,71,0.00,,,0.00,WUHU216HW,2013-06-04 02:01:00,
2013-06-03 22:05:00,66.2,56.5,29.80,NNE,23,1.1,3.1,71,0.00,,,0.00,WUHU216HW,2013-06-04 02:05:00,
2013-06-03 22:06:00,66.2,56.5,29.80,NNW,338,1.3,3.1,71,0.00,,,0.00,WUHU216HW,2013-06-04 02:06:00,
2013-06-03 22:07:00,66.2,56.5,29.80,NNW,338,1.3,3.1,71,0.00,,,0.00,WUHU216HW,2013-06-04 02:07:00,
2013-06-03 22:11:00,66.2,56.5,29.81,NW,315,3.4,3.4,71,0.00,,,0.00,WUHU216HW,2013-06-04 02:11:00,
2013-06-03 22:12:00,66.1,56.8,29.81,North,0,0.4,3.4,72,0.00,,,0.00,WUHU216HW,2013-06-04 02:12:00,
2013-06-03 22:13:00,66.1,56.8,29.81,North,0,0.4,3.4,72,0.00,,,0.00,WUHU216HW,2013-06-04 02:13:00,
2013-06-03 22:15:00,66.1,56.3,29.81,NNW,338,1.1,3.4,71,0.00,,,0.00,WUHU216HW,2013-06-04 02:15:00,
2013-06-03 22:17:00,66.1,56.3,29.81,North,0,1.1,3.4,71,0.00,,,0.00,WUHU216HW,2013-06-04 02:17:00,
2013-06-03 22:18:00,66.1,56.3,29.81,North,0,1.1,3.4,71,0.00,,,0.00,WUHU216HW,2013-06-04 02:18:00,
2013-06-03 22:21:00,66.1,56.8,29.82,North,0,4.0,4.0,72,0.00,,,0.00,WUHU216HW,2013-06-04 02:21:00,
2013-06-03 22:23:00,65.9,56.6,29.82,NNW,338,0.4,4.0,72,0.00,,,0.00,WUHU216HW,2013-06-04 02:23:00,
2013-06-03 22:24:00,65.9,56.6,29.82,NNW,338,1.1,4.0,72,0.00,,,0.00,WUHU216HW,2013-06-04 02:24:00,
2013-06-03 22:26:00,65.9,56.6,29.82,North,0,0.4,4.0,72,0.00,,,0.00,WUHU216HW,2013-06-04 02:26:00,
2013-06-03 22:29:00,65.9,56.6,29.82,NE,45,1.1,4.0,72,0.00,,,0.00,WUHU216HW,2013-06-04 02:29:00,
2013-06-03 22:30:00,65.9,56.6,29.82,NNE,23,1.6,4.0,72,0.00,,,0.00,WUHU216HW,2013-06-04 02:30:00,
2013-06-03 22:31:00,65.9,57.0,29.82,ESE,113,0.0,1.6,73,0.00,,,0.00,WUHU216HW,2013-06-04 02:31:00,
2013-06-03 22:32:00,65.9,57.0,29.82,ESE,113,0.0,1.6,73,0.00,,,0.00,WUHU216HW,2013-06-04 02:32:00,
2013-06-03 22:34:00,65.9,57.0,29.83,ESE,113,1.1,1.6,73,0.00,,,0.00,WUHU216HW,2013-06-04 02:34:00,
2013-06-03 22:35:00,65.7,56.8,29.83,NNW,338,1.1,1.6,73,0.00,,,0.00,WUHU216HW,2013-06-04 02:35:00,
2013-06-03 22:37:00,65.7,56.8,29.82,NE,45,1.1,1.6,73,0.00,,,0.00,WUHU216HW,2013-06-04 02:37:00,
2013-06-03 22:40:00,65.9,57.0,29.83,North,0,0.0,1.1,73,0.00,,,0.00,WUHU216HW,2013-06-04 02:40:00,
2013-06-03 22:41:00,65.7,56.8,29.83,NNE,23,1.8,1.8,73,0.00,,,0.00,WUHU216HW,2013-06-04 02:41:00,
2013-06-03 22:42:00,65.7,56.8,29.83,North,0,1.3,1.8,73,0.00,,,0.00,WUHU216HW,2013-06-04 02:42:00,
2013-06-03 22:43:00,65.9,57.0,29.83,NNE,23,0.7,1.8,73,0.00,,,0.00,WUHU216HW,2013-06-04 02:43:00,
2013-06-03 22:45:00,65.9,57.0,29.83,North,0,0.4,1.8,73,0.00,,,0.00,WUHU216HW,2013-06-04 02:45:00,
2013-06-03 22:47:00,65.9,57.0,29.83,NNE,23,0.4,1.8,73,0.00,,,0.00,WUHU216HW,2013-06-04 02:47:00,
2013-06-03 22:48:00,65.9,57.0,29.83,NNE,23,0.4,1.8,73,0.00,,,0.00,WUHU216HW,2013-06-04 02:48:00,
2013-06-03 22:50:00,65.9,57.0,29.83,NNE,23,0.0,1.8,73,0.00,,,0.00,WUHU216HW,2013-06-04 02:50:00,
2013-06-03 22:53:00,65.7,56.8,29.83,ENE,68,0.0,1.3,73,0.00,,,0.00,WUHU216HW,2013-06-04 02:53:00,
2013-06-03 22:55:00,65.5,56.6,29.83,WSW,248,0.4,1.3,73,0.00,,,0.00,WUHU216HW,2013-06-04 02:55:00,
2013-06-03 22:57:00,65.5,56.6,29.84,North,0,1.1,1.3,73,0.00,,,0.00,WUHU216HW,2013-06-04 02:57:00,
2013-06-03 22:58:00,65.3,56.8,29.83,ENE,68,2.0,2.0,74,0.00,,,0.00,WUHU216HW,2013-06-04 02:58:00,
2013-06-03 23:01:00,65.3,56.4,29.83,NNE,23,0.0,2.0,73,0.00,,,0.00,WUHU216HW,2013-06-04 03:01:00,
2013-06-03 23:03:00,65.3,56.4,29.83,NE,45,1.3,2.0,73,0.00,,,0.00,WUHU216HW,2013-06-04 03:03:00,
2013-06-03 23:04:00,65.3,56.4,29.83,North,0,0.4,2.0,73,0.00,,,0.00,WUHU216HW,2013-06-04 03:04:00,
2013-06-03 23:05:00,65.3,56.4,29.83,NNE,23,1.8,2.0,73,0.00,,,0.00,WUHU216HW,2013-06-04 03:05:00,
2013-06-03 23:06:00,65.3,56.4,29.83,NNE,23,2.9,2.9,73,0.00,,,0.00,WUHU216HW,2013-06-04 03:06:00,
2013-06-03 23:08:00,65.3,56.4,29.83,NNE,23,2.7,2.9,73,0.00,,,0.00,WUHU216HW,2013-06-04 03:08:00,
2013-06-03 23:09:00,65.3,56.4,29.83,ENE,68,1.6,2.9,73,0.00,,,0.00,WUHU216HW,2013-06-04 03:09:00,
2013-06-03 23:10:00,65.3,56.4,29.83,NE,45,2.2,2.9,73,0.00,,,0.00,WUHU216HW,2013-06-04 03:10:00,
2013-06-03 23:13:00,65.3,56.1,29.83,NNE,23,2.0,2.9,72,0.00,,,0.00,WUHU216HW,2013-06-04 03:13:00,
2013-06-03 23:15:00,65.3,56.1,29.84,North,0,1.6,2.9,72,0.00,,,0.00,WUHU216HW,2013-06-04 03:15:00,
2013-06-03 23:16:00,65.3,56.1,29.84,NW,315,1.1,2.7,72,0.00,,,0.00,WUHU216HW,2013-06-04 03:16:00,
2013-06-03 23:18:00,65.3,56.1,29.84,NNW,338,0.9,2.2,72,0.00,,,0.00,WUHU216HW,2013-06-04 03:18:00,
2013-06-03 23:20:00,65.2,55.9,29.84,NNW,338,0.9,2.2,72,0.00,,,0.00,WUHU216HW,2013-06-04 03:20:00,
2013-06-03 23:21:00,65.2,55.9,29.84,NNW,338,0.9,2.0,72,0.00,,,0.00,WUHU216HW,2013-06-04 03:21:00,
2013-06-03 23:22:00,65.0,55.8,29.84,NNW,338,1.3,2.0,72,0.00,,,0.00,WUHU216HW,2013-06-04 03:22:00,
2013-06-03 23:24:00,65.0,55.8,29.84,NNW,338,0.4,1.8,72,0.00,,,0.00,WUHU216HW,2013-06-04 03:24:00,
2013-06-03 23:25:00,64.8,55.6,29.84,NNW,338,0.4,1.8,72,0.00,,,0.00,WUHU216HW,2013-06-04 03:25:00,
2013-06-03 23:26:00,64.8,55.6,29.84,North,0,0.0,1.6,72,0.00,,,0.00,WUHU216HW,2013-06-04 03:26:00,
2013-06-03 23:28:00,64.4,55.3,29.84,NW,315,0.0,1.6,72,0.00,,,0.00,WUHU216HW,2013-06-04 03:28:00,
2013-06-03 23:29:00,64.4,55.6,29.84,NW,315,0.0,1.6,73,0.00,,,0.00,WUHU216HW,2013-06-04 03:29:00,
2013-06-03 23:31:00,64.4,55.6,29.84,NW,315,0.0,1.3,73,0.00,,,0.00,WUHU216HW,2013-06-04 03:31:00,
2013-06-03 23:33:00,64.1,55.3,29.84,WNW,293,1.8,1.8,73,0.00,,,0.00,WUHU216HW,2013-06-04 03:33:00,
2013-06-03 23:35:00,63.9,55.1,29.84,NW,315,0.9,1.8,73,0.00,,,0.00,WUHU216HW,2013-06-04 03:35:00,
2013-06-03 23:37:00,63.7,54.9,29.84,WNW,293,1.1,1.8,73,0.00,,,0.00,WUHU216HW,2013-06-04 03:37:00,
2013-06-03 23:39:00,63.7,54.9,29.84,WNW,293,0.2,1.8,73,0.00,,,0.00,WUHU216HW,2013-06-04 03:39:00,
2013-06-03 23:40:00,63.5,55.1,29.84,NNW,338,0.7,1.8,74,0.00,,,0.00,WUHU216HW,2013-06-04 03:40:00,
2013-06-03 23:42:00,63.5,55.1,29.84,NNW,338,0.4,1.3,74,0.00,,,0.00,WUHU216HW,2013-06-04 03:42:00,
2013-06-03 23:44:00,63.4,54.9,29.84,NW,315,0.7,1.1,74,0.00,,,0.00,WUHU216HW,2013-06-04 03:44:00,
2013-06-03 23:45:00,63.2,54.7,29.84,NNE,23,1.1,1.1,74,0.00,,,0.00,WUHU216HW,2013-06-04 03:45:00,
2013-06-03 23:46:00,63.2,54.7,29.84,NNE,23,1.1,1.1,74,0.00,,,0.00,WUHU216HW,2013-06-04 03:46:00,
2013-06-03 23:47:00,63.2,54.7,29.84,North,0,0.9,1.8,74,0.00,,,0.00,WUHU216HW,2013-06-04 03:47:00,
2013-06-03 23:48:00,63.0,54.5,29.84,North,0,0.4,1.8,74,0.00,,,0.00,WUHU216HW,2013-06-04 03:48:00,
2013-06-03 23:49:00,63.0,54.5,29.84,North,0,0.4,1.8,74,0.00,,,0.00,WUHU216HW,2013-06-04 03:49:00,
2013-06-03 23:52:00,63.0,54.9,29.84,NNE,23,0.9,1.8,75,0.00,,,0.00,WUHU216HW,2013-06-04 03:52:00,
2013-06-03 23:53:00,63.0,54.9,29.84,North,0,0.7,1.8,75,0.00,,,0.00,WUHU216HW,2013-06-04 03:53:00,
2013-06-03 23:54:00,63.0,54.9,29.84,NNW,338,0.0,1.8,75,0.00,,,0.00,WUHU216HW,2013-06-04 03:54:00,
2013-06-03 23:58:00,63.0,54.9,29.84,NNE,23,1.6,1.6,75,0.00,,,0.00,WUHU216HW,2013-06-04 03:58:00,
2013-06-03 23:59:00,63.0,54.9,29.84,NNW,338,0.9,1.6,75,0.00,,,0.00,WUHU216HW,2013-06-04 03:59:00,